Observation data for Tahoka on 12/09/2018      Previous  Date  Next       Current Mesonet Observations  Soil Data  Daily Summary Page  Observations in Plain Language
KTAS 090600Z 33003KT M04/M05 A303 RMK A01 T10401049  RH  093%=      5-min Rain = 0
KTAS 090601Z 33003KT M04/M05 A303 RMK A01 T10401049  RH  093%=      5-min Rain = 0
KTAS 090602Z 33003KT M04/M05 A303 RMK A01 T10401049  RH  093%=      5-min Rain = 0
KTAS 090603Z 33003KT M04/M05 A303 RMK A01 T10401050  RH  093%=      5-min Rain = 0
KTAS 090604Z 33003KT M04/M05 A303 RMK A01 T10411050  RH  093%=      5-min Rain = 0
KTAS 090605Z 32003KT M04/M05 A303 RMK A01 T10411051  RH  093%=      5-min Rain = 0
KTAS 090606Z 32003KT M04/M05 A303 RMK A01 T10411051  RH  093%=      5-min Rain = 0
KTAS 090607Z 31003KT M04/M05 A303 RMK A01 T10421051  RH  093%=      5-min Rain = 0
KTAS 090608Z 30003KT M04/M05 A303 RMK A01 T10421051  RH  093%=      5-min Rain = 0
KTAS 090609Z 30003KT M04/M05 A303 RMK A01 T10421051  RH  093%=      5-min Rain = 0
KTAS 090610Z 30003KT M04/M05 A303 RMK A01 T10421051  RH  093%=      5-min Rain = 0
KTAS 090611Z 30003KT M04/M05 A303 RMK A01 T10421052  RH  093%=      5-min Rain = 0
KTAS 090612Z 31003KT M04/M05 A303 RMK A01 T10421052  RH  093%=      5-min Rain = 0
KTAS 090613Z 31003KT M04/M05 A303 RMK A01 T10421051  RH  093%=      5-min Rain = 0
KTAS 090614Z 31004KT M04/M05 A303 RMK A01 T10431052  RH  093%=      5-min Rain = 0
KTAS 090615Z 31004KT M04/M05 A3029 RMK A01 T10431052  RH  093%=      5-min Rain = 0
KTAS 090616Z 31004KT M04/M05 A3029 RMK A01 T10431053  RH  093%=      5-min Rain = 0
KTAS 090617Z 31004KT M05/M05 A303 RMK A01 T10451054  RH  093%=      5-min Rain = 0
KTAS 090618Z 31005KT M05/M06 A303 RMK A01 T10451055  RH  093%=      5-min Rain = 0
KTAS 090619Z 31005KT M05/M06 A303 RMK A01 T10461055  RH  093%=      5-min Rain = 0
KTAS 090620Z 31004KT M05/M06 A303 RMK A01 T10461056  RH  093%=      5-min Rain = 0
KTAS 090621Z 32004KT M05/M06 A303 RMK A01 T10461056  RH  093%=      5-min Rain = 0
KTAS 090622Z 31004KT M05/M06 A303 RMK A01 T10461056  RH  093%=      5-min Rain = 0
KTAS 090623Z 31003KT M05/M06 A303 RMK A01 T10461056  RH  093%=      5-min Rain = 0
KTAS 090624Z 32003KT M05/M06 A303 RMK A01 T10461056  RH  093%=      5-min Rain = 0
KTAS 090625Z 32003KT M05/M06 A303 RMK A01 T10471056  RH  093%=      5-min Rain = 0
KTAS 090626Z 31004KT M05/M06 A303 RMK A01 T10471056  RH  093%=      5-min Rain = 0
KTAS 090627Z 31004KT M05/M06 A303 RMK A01 T10471056  RH  093%=      5-min Rain = 0
KTAS 090628Z 31004KT M05/M06 A303 RMK A01 T10471057  RH  093%=      5-min Rain = 0
KTAS 090629Z 31004KT M05/M06 A303 RMK A01 T10471057  RH  093%=      5-min Rain = 0
KTAS 090630Z 31004KT M05/M06 A303 RMK A01 T10471057  RH  093%=      5-min Rain = 0
KTAS 090631Z 31004KT M05/M06 A3029 RMK A01 T10481057  RH  093%=      5-min Rain = 0
KTAS 090632Z 32004KT M05/M06 A3029 RMK A01 T10481057  RH  093%=      5-min Rain = 0
KTAS 090633Z 31004KT M05/M06 A3029 RMK A01 T10481057  RH  093%=      5-min Rain = 0
KTAS 090634Z 31004KT M05/M06 A3029 RMK A01 T10471057  RH  093%=      5-min Rain = 0
KTAS 090635Z 32004KT M05/M06 A3029 RMK A01 T10481057  RH  093%=      5-min Rain = 0
KTAS 090636Z 32003KT M05/M06 A3029 RMK A01 T10481057  RH  093%=      5-min Rain = 0
KTAS 090637Z 32003KT M05/M06 A3029 RMK A01 T10481058  RH  093%=      5-min Rain = 0
KTAS 090638Z 32003KT M05/M06 A3029 RMK A01 T10481058  RH  093%=      5-min Rain = 0
KTAS 090639Z 32003KT M05/M06 A3029 RMK A01 T10491059  RH  093%=      5-min Rain = 0
KTAS 090640Z 32003KT M05/M06 A3029 RMK A01 T10491059  RH  093%=      5-min Rain = 0
KTAS 090641Z 31003KT M05/M06 A3029 RMK A01 T10491059  RH  093%=      5-min Rain = 0
KTAS 090642Z 31003KT M05/M06 A3029 RMK A01 T10491059  RH  093%=      5-min Rain = 0
KTAS 090643Z 31004KT M05/M06 A3029 RMK A01 T10491059  RH  093%=      5-min Rain = 0
KTAS 090644Z 31003KT M05/M06 A3029 RMK A01 T10491059  RH  093%=      5-min Rain = 0
KTAS 090645Z 31003KT M05/M06 A3029 RMK A01 T10491059  RH  093%=      5-min Rain = 0
KTAS 090646Z 31003KT M05/M06 A3029 RMK A01 T10491059  RH  093%=      5-min Rain = 0
KTAS 090647Z 31003KT M05/M06 A3029 RMK A01 T10481058  RH  093%=      5-min Rain = 0
KTAS 090648Z 31003KT M05/M06 A3029 RMK A01 T10481058  RH  093%=      5-min Rain = 0
KTAS 090649Z 31003KT M05/M06 A3029 RMK A01 T10481058  RH  093%=      5-min Rain = 0
KTAS 090650Z 31003KT M05/M06 A3029 RMK A01 T10481058  RH  093%=      5-min Rain = 0
KTAS 090651Z 30003KT M05/M06 A3029 RMK A01 T10481058  RH  093%=      5-min Rain = 0
KTAS 090652Z 30003KT M05/M06 A3029 RMK A01 T10481058  RH  093%=      5-min Rain = 0
KTAS 090653Z 30003KT M05/M06 A3029 RMK A01 T10481058  RH  093%=      5-min Rain = 0
KTAS 090654Z 31003KT M05/M06 A3029 RMK A01 T10471057  RH  093%=      5-min Rain = 0
KTAS 090655Z 31003KT M05/M06 A3029 RMK A01 T10471057  RH  093%=      5-min Rain = 0
KTAS 090656Z 31003KT M05/M06 A3029 RMK A01 T10461056  RH  093%=      5-min Rain = 0
KTAS 090657Z 31003KT M05/M06 A3029 RMK A01 T10461056  RH  093%=      5-min Rain = 0
KTAS 090658Z 32003KT M05/M06 A3029 RMK A01 T10471057  RH  093%=      5-min Rain = 0
KTAS 090659Z 32003KT M05/M06 A3029 RMK A01 T10471057  RH  093%=      5-min Rain = 0
KTAS 090700Z 32003KT M05/M06 A3029 RMK A01 T10471057  RH  093%=      5-min Rain = 0
KTAS 090701Z 32003KT M05/M06 A3029 RMK A01 T10471057  RH  093%=      5-min Rain = 0
KTAS 090702Z 32003KT M05/M06 A3029 RMK A01 T10481058  RH  093%=      5-min Rain = 0
KTAS 090703Z 32003KT M05/M06 A3029 RMK A01 T10481058  RH  093%=      5-min Rain = 0
KTAS 090704Z 31003KT M05/M06 A3029 RMK A01 T10481058  RH  093%=      5-min Rain = 0
KTAS 090705Z 32003KT M05/M06 A3029 RMK A01 T10481058  RH  093%=      5-min Rain = 0
KTAS 090706Z 32003KT M05/M06 A3029 RMK A01 T10481058  RH  093%=      5-min Rain = 0
KTAS 090707Z 31003KT M05/M06 A3029 RMK A01 T10481058  RH  093%=      5-min Rain = 0
KTAS 090708Z 31003KT M05/M06 A3029 RMK A01 T10481058  RH  093%=      5-min Rain = 0
KTAS 090709Z 31004KT M05/M06 A3029 RMK A01 T10481058  RH  093%=      5-min Rain = 0
KTAS 090710Z 31004KT M05/M06 A3029 RMK A01 T10471057  RH  093%=      5-min Rain = 0
KTAS 090711Z 31004KT M05/M06 A3029 RMK A01 T10471057  RH  093%=      5-min Rain = 0
KTAS 090712Z 31004KT M05/M06 A3029 RMK A01 T10471057  RH  093%=      5-min Rain = 0
KTAS 090713Z 30004KT M05/M06 A3029 RMK A01 T10471057  RH  093%=      5-min Rain = 0
KTAS 090714Z 31004KT M05/M06 A3029 RMK A01 T10471057  RH  093%=      5-min Rain = 0
KTAS 090715Z 31005KT M05/M06 A3029 RMK A01 T10471057  RH  093%=      5-min Rain = 0
KTAS 090716Z 31004KT M05/M06 A3029 RMK A01 T10471057  RH  093%=      5-min Rain = 0
KTAS 090717Z 30005KT M05/M06 A3029 RMK A01 T10481057  RH  093%=      5-min Rain = 0
KTAS 090718Z 30005KT M05/M06 A3029 RMK A01 T10481058  RH  093%=      5-min Rain = 0
KTAS 090719Z 30005KT M05/M06 A3029 RMK A01 T10471057  RH  093%=      5-min Rain = 0
KTAS 090720Z 30005KT M05/M06 A3029 RMK A01 T10481057  RH  093%=      5-min Rain = 0
KTAS 090721Z 30005KT M05/M06 A3029 RMK A01 T10481058  RH  093%=      5-min Rain = 0
KTAS 090722Z 30005KT M05/M06 A3029 RMK A01 T10481058  RH  093%=      5-min Rain = 0
KTAS 090723Z 30005KT M05/M06 A3029 RMK A01 T10491059  RH  093%=      5-min Rain = 0
KTAS 090724Z 30005KT M05/M06 A3029 RMK A01 T10491059  RH  093%=      5-min Rain = 0
KTAS 090725Z 30005KT M05/M06 A3029 RMK A01 T10491059  RH  093%=      5-min Rain = 0
KTAS 090726Z 31004KT M05/M06 A3029 RMK A01 T10501060  RH  093%=      5-min Rain = 0
KTAS 090727Z 31004KT M05/M06 A3029 RMK A01 T10501060  RH  093%=      5-min Rain = 0
KTAS 090728Z 31004KT M05/M06 A3029 RMK A01 T10501061  RH  093%=      5-min Rain = 0
KTAS 090729Z 31004KT M05/M06 A3029 RMK A01 T10511061  RH  093%=      5-min Rain = 0
KTAS 090730Z 31005KT M05/M06 A3029 RMK A01 T10511061  RH  093%=      5-min Rain = 0
KTAS 090731Z 31005KT M05/M06 A3029 RMK A01 T10511061  RH  093%=      5-min Rain = 0
KTAS 090732Z 31005KT M05/M06 A3029 RMK A01 T10511061  RH  093%=      5-min Rain = 0
KTAS 090733Z 31005KT M05/M06 A3029 RMK A01 T10511061  RH  093%=      5-min Rain = 0
KTAS 090734Z 32005KT M05/M06 A3029 RMK A01 T10511061  RH  092%=      5-min Rain = 0
KTAS 090735Z 32004KT M05/M06 A3029 RMK A01 T10511062  RH  092%=      5-min Rain = 0
KTAS 090736Z 32004KT M05/M06 A3029 RMK A01 T10511062  RH  092%=      5-min Rain = 0
KTAS 090737Z 32004KT M05/M06 A3029 RMK A01 T10521062  RH  092%=      5-min Rain = 0
KTAS 090738Z 32004KT M05/M06 A3029 RMK A01 T10521063  RH  092%=      5-min Rain = 0
KTAS 090739Z 32005KT M05/M06 A3029 RMK A01 T10531063  RH  092%=      5-min Rain = 0
KTAS 090740Z 32005KT M05/M06 A3029 RMK A01 T10531063  RH  092%=      5-min Rain = 0
KTAS 090741Z 32005KT M05/M06 A3029 RMK A01 T10521063  RH  092%=      5-min Rain = 0
KTAS 090742Z 32005KT M05/M06 A3029 RMK A01 T10521063  RH  092%=      5-min Rain = 0
KTAS 090743Z 32005KT M05/M06 A3029 RMK A01 T10521062  RH  092%=      5-min Rain = 0
KTAS 090744Z 32005KT M05/M06 A3029 RMK A01 T10521063  RH  092%=      5-min Rain = 0
KTAS 090745Z 33004KT M05/M06 A3029 RMK A01 T10521063  RH  092%=      5-min Rain = 0
KTAS 090746Z 33005KT M05/M06 A3029 RMK A01 T10531063  RH  092%=      5-min Rain = 0
KTAS 090747Z 33005KT M05/M06 A3029 RMK A01 T10531063  RH  092%=      5-min Rain = 0
KTAS 090748Z 33004KT M05/M06 A3029 RMK A01 T10531064  RH  092%=      5-min Rain = 0
KTAS 090749Z 33005KT M05/M06 A3029 RMK A01 T10531064  RH  092%=      5-min Rain = 0
KTAS 090750Z 33005KT M05/M06 A3029 RMK A01 T10531064  RH  092%=      5-min Rain = 0
KTAS 090751Z 33005KT M05/M06 A3029 RMK A01 T10531064  RH  092%=      5-min Rain = 0
KTAS 090752Z 33005KT M05/M06 A3029 RMK A01 T10531064  RH  092%=      5-min Rain = 0
KTAS 090753Z 33005KT M05/M06 A3029 RMK A01 T10531064  RH  092%=      5-min Rain = 0
KTAS 090754Z 33005KT M05/M06 A3029 RMK A01 T10531063  RH  092%=      5-min Rain = 0
KTAS 090755Z 33005KT M05/M06 A3029 RMK A01 T10531063  RH  092%=      5-min Rain = 0
KTAS 090756Z 34004KT M05/M06 A3029 RMK A01 T10531063  RH  092%=      5-min Rain = 0
KTAS 090757Z 34004KT M05/M06 A3028 RMK A01 T10531063  RH  092%=      5-min Rain = 0
KTAS 090758Z 34004KT M05/M06 A3028 RMK A01 T10531064  RH  092%=      5-min Rain = 0
KTAS 090759Z 34004KT M05/M06 A3028 RMK A01 T10541064  RH  092%=      5-min Rain = 0
KTAS 090800Z 34004KT M05/M07 A3028 RMK A01 T10541065  RH  092%=      5-min Rain = 0
KTAS 090801Z 34004KT M05/M06 A3028 RMK A01 T10541064  RH  092%=      5-min Rain = 0
KTAS 090802Z 34004KT M05/M06 A3028 RMK A01 T10541064  RH  092%=      5-min Rain = 0
KTAS 090803Z 34004KT M05/M06 A3028 RMK A01 T10541064  RH  092%=      5-min Rain = 0
KTAS 090804Z 34004KT M05/M06 A3028 RMK A01 T10531064  RH  092%=      5-min Rain = 0
KTAS 090805Z 35005KT M05/M06 A3028 RMK A01 T10531064  RH  092%=      5-min Rain = 0
KTAS 090806Z 34005KT M05/M06 A3028 RMK A01 T10531064  RH  092%=      5-min Rain = 0
KTAS 090807Z 34005KT M05/M06 A3028 RMK A01 T10531064  RH  092%=      5-min Rain = 0
KTAS 090808Z 34006KT M05/M06 A3028 RMK A01 T10531063  RH  092%=      5-min Rain = 0
KTAS 090809Z 34005KT M05/M06 A3028 RMK A01 T10521062  RH  092%=      5-min Rain = 0
KTAS 090810Z 34005KT M05/M06 A3028 RMK A01 T10521062  RH  092%=      5-min Rain = 0
KTAS 090811Z 35005KT M05/M06 A3028 RMK A01 T10521062  RH  092%=      5-min Rain = 0
KTAS 090812Z 35005KT M05/M06 A3028 RMK A01 T10521062  RH  092%=      5-min Rain = 0
KTAS 090813Z 35005KT M05/M06 A3028 RMK A01 T10511062  RH  092%=      5-min Rain = 0
KTAS 090814Z 35006KT M05/M06 A3028 RMK A01 T10511062  RH  092%=      5-min Rain = 0
KTAS 090815Z 35005KT M05/M06 A3028 RMK A01 T10501061  RH  092%=      5-min Rain = 0
KTAS 090816Z 35005KT M05/M06 A3029 RMK A01 T10501061  RH  092%=      5-min Rain = 0
KTAS 090817Z 34005KT M05/M06 A3029 RMK A01 T10501061  RH  092%=      5-min Rain = 0
KTAS 090818Z 34005KT M05/M06 A3029 RMK A01 T10511061  RH  092%=      5-min Rain = 0
KTAS 090819Z 34005KT M05/M06 A3029 RMK A01 T10511062  RH  092%=      5-min Rain = 0
KTAS 090820Z 34005KT M05/M06 A3029 RMK A01 T10521062  RH  092%=      5-min Rain = 0
KTAS 090821Z 34005KT M05/M06 A3029 RMK A01 T10521063  RH  092%=      5-min Rain = 0
KTAS 090822Z 34005KT M05/M06 A3029 RMK A01 T10521063  RH  092%=      5-min Rain = 0
KTAS 090823Z 34005KT M05/M06 A3029 RMK A01 T10531064  RH  092%=      5-min Rain = 0
KTAS 090824Z 34005KT M05/M06 A3029 RMK A01 T10531064  RH  092%=      5-min Rain = 0
KTAS 090825Z 34005KT M05/M06 A3029 RMK A01 T10531064  RH  092%=      5-min Rain = 0
KTAS 090826Z 33005KT M05/M06 A3029 RMK A01 T10531064  RH  092%=      5-min Rain = 0
KTAS 090827Z 33005KT M05/M06 A3029 RMK A01 T10531064  RH  092%=      5-min Rain = 0
KTAS 090828Z 33005KT M05/M06 A3028 RMK A01 T10531064  RH  092%=      5-min Rain = 0
KTAS 090829Z 33004KT M05/M06 A3028 RMK A01 T10531064  RH  092%=      5-min Rain = 0
KTAS 090830Z 34004KT M05/M06 A3028 RMK A01 T10541064  RH  092%=      5-min Rain = 0
KTAS 090831Z 34004KT M05/M07 A3028 RMK A01 T10541065  RH  092%=      5-min Rain = 0
KTAS 090832Z 33005KT M05/M07 A3028 RMK A01 T10541065  RH  092%=      5-min Rain = 0
KTAS 090833Z 32004KT M05/M07 A3028 RMK A01 T10541065  RH  092%=      5-min Rain = 0
KTAS 090834Z 30005KT M06/M07 A3029 RMK A01 T10551066  RH  092%=      5-min Rain = 0
KTAS 090835Z 30005KT M06/M07 A3029 RMK A01 T10561067  RH  092%=      5-min Rain = 0
KTAS 090836Z 32005KT M06/M07 A3029 RMK A01 T10571068  RH  092%=      5-min Rain = 0
KTAS 090837Z 33005KT M06/M07 A3029 RMK A01 T10571068  RH  092%=      5-min Rain = 0
KTAS 090838Z 32005KT M06/M07 A3029 RMK A01 T10571068  RH  092%=      5-min Rain = 0
KTAS 090839Z 29005KT M06/M07 A3029 RMK A01 T10571068  RH  092%=      5-min Rain = 0
KTAS 090840Z 30006KT M06/M07 A3029 RMK A01 T10571068  RH  092%=      5-min Rain = 0
KTAS 090841Z 32006KT M06/M07 A3029 RMK A01 T10581069  RH  092%=      5-min Rain = 0
KTAS 090842Z 32006KT M06/M07 A3029 RMK A01 T10571069  RH  092%=      5-min Rain = 0
KTAS 090843Z 32005KT M06/M07 A3028 RMK A01 T10571068  RH  092%=      5-min Rain = 0
KTAS 090844Z 31005KT M06/M07 A3028 RMK A01 T10571068  RH  092%=      5-min Rain = 0
KTAS 090845Z 31005KT M06/M07 A3029 RMK A01 T10571068  RH  092%=      5-min Rain = 0
KTAS 090846Z 31005KT M06/M07 A3029 RMK A01 T10571069  RH  092%=      5-min Rain = 0
KTAS 090847Z 31005KT M06/M07 A3028 RMK A01 T10571069  RH  092%=      5-min Rain = 0
KTAS 090848Z 31005KT M06/M07 A3028 RMK A01 T10581069  RH  092%=      5-min Rain = 0
KTAS 090849Z 32005KT M06/M07 A3028 RMK A01 T10571069  RH  092%=      5-min Rain = 0
KTAS 090850Z 32005KT M06/M07 A3028 RMK A01 T10581069  RH  092%=      5-min Rain = 0
KTAS 090851Z 32005KT M06/M07 A3028 RMK A01 T10581069  RH  092%=      5-min Rain = 0
KTAS 090852Z 33006KT M06/M07 A3028 RMK A01 T10581069  RH  092%=      5-min Rain = 0
KTAS 090853Z 33006KT M06/M07 A3028 RMK A01 T10581069  RH  092%=      5-min Rain = 0
KTAS 090854Z 33006KT M06/M07 A3028 RMK A01 T10581069  RH  092%=      5-min Rain = 0
KTAS 090855Z 33006KT M06/M07 A3028 RMK A01 T10571069  RH  092%=      5-min Rain = 0
KTAS 090856Z 32005KT M06/M07 A3028 RMK A01 T10571068  RH  092%=      5-min Rain = 0
KTAS 090857Z 32005KT M06/M07 A3028 RMK A01 T10571068  RH  092%=      5-min Rain = 0
KTAS 090858Z 33005KT M06/M07 A3028 RMK A01 T10571068  RH  092%=      5-min Rain = 0
KTAS 090859Z 33005KT M06/M07 A3028 RMK A01 T10571068  RH  092%=      5-min Rain = 0
KTAS 090900Z 33005KT M06/M07 A3028 RMK A01 T10571069  RH  092%=      5-min Rain = 0
KTAS 090901Z 33005KT M06/M07 A3028 RMK A01 T10571069  RH  092%=      5-min Rain = 0
KTAS 090902Z 33005KT M06/M07 A3028 RMK A01 T10581069  RH  092%=      5-min Rain = 0
KTAS 090903Z 33005KT M06/M07 A3028 RMK A01 T10581069  RH  092%=      5-min Rain = 0
KTAS 090904Z 33005KT M06/M07 A3028 RMK A01 T10581069  RH  092%=      5-min Rain = 0
KTAS 090905Z 34005KT M06/M07 A3028 RMK A01 T10571069  RH  092%=      5-min Rain = 0
KTAS 090906Z 34005KT M06/M07 A3028 RMK A01 T10571068  RH  092%=      5-min Rain = 0
KTAS 090907Z 34005KT M06/M07 A3028 RMK A01 T10571068  RH  092%=      5-min Rain = 0
KTAS 090908Z 34006KT M06/M07 A3028 RMK A01 T10561068  RH  092%=      5-min Rain = 0
KTAS 090909Z 34006KT M06/M07 A3028 RMK A01 T10561067  RH  092%=      5-min Rain = 0
KTAS 090910Z 34006KT M06/M07 A3028 RMK A01 T10551066  RH  092%=      5-min Rain = 0
KTAS 090911Z 35006KT M06/M07 A3028 RMK A01 T10551066  RH  092%=      5-min Rain = 0
KTAS 090912Z 35006KT M05/M07 A3028 RMK A01 T10541065  RH  092%=      5-min Rain = 0
KTAS 090913Z 35006KT M05/M07 A3028 RMK A01 T10541065  RH  092%=      5-min Rain = 0
KTAS 090914Z 35006KT M05/M07 A3028 RMK A01 T10541065  RH  092%=      5-min Rain = 0
KTAS 090915Z 35006KT M05/M07 A3028 RMK A01 T10541065  RH  092%=      5-min Rain = 0
KTAS 090916Z 35006KT M05/M07 A3028 RMK A01 T10541065  RH  092%=      5-min Rain = 0
KTAS 090917Z 34006KT M05/M07 A3028 RMK A01 T10541065  RH  092%=      5-min Rain = 0
KTAS 090918Z 35006KT M05/M07 A3028 RMK A01 T10541065  RH  092%=      5-min Rain = 0
KTAS 090919Z 35006KT M05/M07 A3028 RMK A01 T10531065  RH  092%=      5-min Rain = 0
KTAS 090920Z 35006KT M05/M06 A3028 RMK A01 T10531064  RH  092%=      5-min Rain = 0
KTAS 090921Z 35005KT M05/M06 A3028 RMK A01 T10531064  RH  092%=      5-min Rain = 0
KTAS 090922Z 35005KT M05/M06 A3028 RMK A01 T10531064  RH  092%=      5-min Rain = 0
KTAS 090923Z 35005KT M05/M06 A3028 RMK A01 T10521063  RH  092%=      5-min Rain = 0
KTAS 090924Z 35005KT M05/M06 A3028 RMK A01 T10521063  RH  092%=      5-min Rain = 0
KTAS 090925Z 36005KT M05/M06 A3028 RMK A01 T10521063  RH  092%=      5-min Rain = 0
KTAS 090926Z 02006KT M05/M06 A3028 RMK A01 T10521063  RH  092%=      5-min Rain = 0
KTAS 090927Z 03005KT M05/M06 A3028 RMK A01 T10521063  RH  092%=      5-min Rain = 0
KTAS 090928Z 00005KT M05/M06 A3028 RMK A01 T10521063  RH  092%=      5-min Rain = 0
KTAS 090929Z 00006KT M05/M06 A3028 RMK A01 T10521063  RH  092%=      5-min Rain = 0
KTAS 090930Z 36006KT M05/M06 A3028 RMK A01 T10521063  RH  092%=      5-min Rain = 0
KTAS 090931Z 35006KT M05/M06 A3028 RMK A01 T10521063  RH  092%=      5-min Rain = 0
KTAS 090932Z 35006KT M05/M06 A3028 RMK A01 T10521063  RH  092%=      5-min Rain = 0
KTAS 090933Z 35006KT M05/M06 A3028 RMK A01 T10521063  RH  092%=      5-min Rain = 0
KTAS 090934Z 35006KT M05/M06 A3028 RMK A01 T10521063  RH  092%=      5-min Rain = 0
KTAS 090935Z 35005KT M05/M06 A3028 RMK A01 T10531064  RH  092%=      5-min Rain = 0
KTAS 090936Z 35005KT M05/M06 A3029 RMK A01 T10531063  RH  092%=      5-min Rain = 0
KTAS 090937Z 35005KT M05/M06 A3029 RMK A01 T10521063  RH  092%=      5-min Rain = 0
KTAS 090938Z 00006KT M05/M06 A3029 RMK A01 T10531064  RH  092%=      5-min Rain = 0
KTAS 090939Z 01006KT M05/M06 A3029 RMK A01 T10531064  RH  092%=      5-min Rain = 0
KTAS 090940Z 08006KT M05/M06 A3029 RMK A01 T10521063  RH  092%=      5-min Rain = 0
KTAS 090941Z 00006KT M05/M06 A3028 RMK A01 T10531063  RH  092%=      5-min Rain = 0
KTAS 090942Z 01006KT M05/M07 A3028 RMK A01 T10541065  RH  092%=      5-min Rain = 0
KTAS 090943Z 00007KT M05/M07 A3028 RMK A01 T10541065  RH  092%=      5-min Rain = 0
KTAS 090944Z 01008KT M05/M06 A3028 RMK A01 T10531064  RH  092%=      5-min Rain = 0
KTAS 090945Z 01007KT M05/M06 A3028 RMK A01 T10521063  RH  092%=      5-min Rain = 0
KTAS 090946Z 01006KT M05/M06 A3028 RMK A01 T10511062  RH  092%=      5-min Rain = 0
KTAS 090947Z 01006KT M05/M06 A3028 RMK A01 T10511062  RH  092%=      5-min Rain = 0
KTAS 090948Z 01006KT M05/M06 A3028 RMK A01 T10511062  RH  092%=      5-min Rain = 0
KTAS 090949Z 01005KT M05/M06 A3028 RMK A01 T10511061  RH  092%=      5-min Rain = 0
KTAS 090950Z 01005KT M05/M06 A3028 RMK A01 T10511061  RH  092%=      5-min Rain = 0
KTAS 090951Z 01005KT M05/M06 A3028 RMK A01 T10511061  RH  092%=      5-min Rain = 0
KTAS 090952Z 01005KT M05/M06 A3028 RMK A01 T10511061  RH  092%=      5-min Rain = 0
KTAS 090953Z 01005KT M05/M06 A3028 RMK A01 T10511061  RH  092%=      5-min Rain = 0
KTAS 090954Z 36004KT M05/M06 A3028 RMK A01 T10511062  RH  092%=      5-min Rain = 0
KTAS 090955Z 35004KT M05/M06 A3028 RMK A01 T10511062  RH  092%=      5-min Rain = 0
KTAS 090956Z 35004KT M05/M06 A3028 RMK A01 T10521063  RH  092%=      5-min Rain = 0
KTAS 090957Z 35003KT M05/M06 A3028 RMK A01 T10521063  RH  092%=      5-min Rain = 0
KTAS 090958Z 35004KT M05/M06 A3028 RMK A01 T10531064  RH  092%=      5-min Rain = 0
KTAS 090959Z 34004KT M05/M06 A3028 RMK A01 T10531064  RH  092%=      5-min Rain = 0
KTAS 091000Z 33003KT M05/M06 A3028 RMK A01 T10541064  RH  092%=      5-min Rain = 0
KTAS 091001Z 32003KT M05/M07 A3028 RMK A01 T10541065  RH  092%=      5-min Rain = 0
KTAS 091002Z 33004KT M06/M07 A3028 RMK A01 T10551066  RH  092%=      5-min Rain = 0
KTAS 091003Z 34004KT M06/M07 A3028 RMK A01 T10561067  RH  092%=      5-min Rain = 0
KTAS 091004Z 35004KT M06/M07 A3028 RMK A01 T10561067  RH  092%=      5-min Rain = 0
KTAS 091005Z 34004KT M06/M07 A3028 RMK A01 T10561067  RH  092%=      5-min Rain = 0
KTAS 091006Z 34004KT M06/M07 A3028 RMK A01 T10561067  RH  092%=      5-min Rain = 0
KTAS 091007Z 34004KT M06/M07 A3028 RMK A01 T10561068  RH  092%=      5-min Rain = 0
KTAS 091008Z 34004KT M06/M07 A3028 RMK A01 T10561068  RH  092%=      5-min Rain = 0
KTAS 091009Z 34004KT M06/M07 A3028 RMK A01 T10571068  RH  092%=      5-min Rain = 0
KTAS 091010Z 34004KT M06/M07 A3028 RMK A01 T10571068  RH  092%=      5-min Rain = 0
KTAS 091011Z 34005KT M06/M07 A3028 RMK A01 T10571068  RH  092%=      5-min Rain = 0
KTAS 091012Z 34005KT M06/M07 A3028 RMK A01 T10571069  RH  092%=      5-min Rain = 0
KTAS 091013Z 34004KT M06/M07 A3028 RMK A01 T10581069  RH  092%=      5-min Rain = 0
KTAS 091014Z 34005KT M06/M07 A3028 RMK A01 T10581069  RH  092%=      5-min Rain = 0
KTAS 091015Z 34005KT M06/M07 A3028 RMK A01 T10581069  RH  092%=      5-min Rain = 0
KTAS 091016Z 34005KT M06/M07 A3028 RMK A01 T10581069  RH  092%=      5-min Rain = 0
KTAS 091017Z 34005KT M06/M07 A3028 RMK A01 T10581069  RH  092%=      5-min Rain = 0
KTAS 091018Z 34005KT M06/M07 A3028 RMK A01 T10581070  RH  092%=      5-min Rain = 0
KTAS 091019Z 34005KT M06/M07 A3028 RMK A01 T10581070  RH  092%=      5-min Rain = 0
KTAS 091020Z 34005KT M06/M07 A3028 RMK A01 T10581070  RH  092%=      5-min Rain = 0
KTAS 091021Z 34005KT M06/M07 A3028 RMK A01 T10581070  RH  092%=      5-min Rain = 0
KTAS 091022Z 34005KT M06/M07 A3028 RMK A01 T10581069  RH  092%=      5-min Rain = 0
KTAS 091023Z 34005KT M06/M07 A3028 RMK A01 T10581069  RH  092%=      5-min Rain = 0
KTAS 091024Z 34005KT M06/M07 A3028 RMK A01 T10581069  RH  092%=      5-min Rain = 0
KTAS 091025Z 34005KT M06/M07 A3028 RMK A01 T10581070  RH  092%=      5-min Rain = 0
KTAS 091026Z 34005KT M06/M07 A3028 RMK A01 T10581070  RH  092%=      5-min Rain = 0
KTAS 091027Z 33004KT M06/M07 A3028 RMK A01 T10591070  RH  092%=      5-min Rain = 0
KTAS 091028Z 32004KT M06/M07 A3028 RMK A01 T10591071  RH  092%=      5-min Rain = 0
KTAS 091029Z 31004KT M06/M07 A3028 RMK A01 T10601072  RH  091%=      5-min Rain = 0
KTAS 091030Z 31005KT M06/M07 A3028 RMK A01 T10611073  RH  091%=      5-min Rain = 0
KTAS 091031Z 31004KT M06/M07 A3028 RMK A01 T10611073  RH  091%=      5-min Rain = 0
KTAS 091032Z 32005KT M06/M07 A3028 RMK A01 T10621074  RH  091%=      5-min Rain = 0
KTAS 091033Z 32005KT M06/M07 A3028 RMK A01 T10621074  RH  091%=      5-min Rain = 0
KTAS 091034Z 32005KT M06/M08 A3028 RMK A01 T10621075  RH  091%=      5-min Rain = 0
KTAS 091035Z 32005KT M06/M07 A3028 RMK A01 T10621074  RH  091%=      5-min Rain = 0
KTAS 091036Z 32005KT M06/M08 A3028 RMK A01 T10631075  RH  091%=      5-min Rain = 0
KTAS 091037Z 32006KT M06/M08 A3028 RMK A01 T10631075  RH  091%=      5-min Rain = 0
KTAS 091038Z 32006KT M06/M08 A3028 RMK A01 T10631075  RH  091%=      5-min Rain = 0
KTAS 091039Z 31006KT M06/M08 A3028 RMK A01 T10631075  RH  091%=      5-min Rain = 0
KTAS 091040Z 31006KT M06/M08 A3028 RMK A01 T10631075  RH  091%=      5-min Rain = 0
KTAS 091041Z 31006KT M06/M08 A3028 RMK A01 T10631075  RH  091%=      5-min Rain = 0
KTAS 091042Z 31006KT M06/M08 A3028 RMK A01 T10631075  RH  091%=      5-min Rain = 0
KTAS 091043Z 31006KT M06/M08 A3028 RMK A01 T10631075  RH  091%=      5-min Rain = 0
KTAS 091044Z 31006KT M06/M08 A3029 RMK A01 T10621075  RH  091%=      5-min Rain = 0
KTAS 091045Z 31006KT M06/M08 A3029 RMK A01 T10621075  RH  091%=      5-min Rain = 0
KTAS 091046Z 31006KT M06/M07 A3029 RMK A01 T10621074  RH  091%=      5-min Rain = 0
KTAS 091047Z 31006KT M06/M07 A3029 RMK A01 T10621074  RH  091%=      5-min Rain = 0
KTAS 091048Z 31006KT M06/M07 A3029 RMK A01 T10611074  RH  091%=      5-min Rain = 0
KTAS 091049Z 31006KT M06/M07 A3029 RMK A01 T10611073  RH  091%=      5-min Rain = 0
KTAS 091050Z 31006KT M06/M07 A3029 RMK A01 T10611073  RH  091%=      5-min Rain = 0
KTAS 091051Z 31006KT M06/M07 A3029 RMK A01 T10611073  RH  091%=      5-min Rain = 0
KTAS 091052Z 31006KT M06/M07 A3029 RMK A01 T10611073  RH  091%=      5-min Rain = 0
KTAS 091053Z 31006KT M06/M07 A3029 RMK A01 T10611073  RH  091%=      5-min Rain = 0
KTAS 091054Z 31006KT M06/M07 A3029 RMK A01 T10611073  RH  091%=      5-min Rain = 0
KTAS 091055Z 31006KT M06/M07 A3029 RMK A01 T10611073  RH  091%=      5-min Rain = 0
KTAS 091056Z 31007KT M06/M07 A3029 RMK A01 T10611073  RH  091%=      5-min Rain = 0
KTAS 091057Z 31006KT M06/M07 A3029 RMK A01 T10611073  RH  091%=      5-min Rain = 0
KTAS 091058Z 31007KT M06/M07 A3029 RMK A01 T10611073  RH  091%=      5-min Rain = 0
KTAS 091059Z 31006KT M06/M07 A3029 RMK A01 T10611073  RH  091%=      5-min Rain = 0
KTAS 091100Z 31007KT M06/M07 A3029 RMK A01 T10601073  RH  091%=      5-min Rain = 0
KTAS 091101Z 31007KT M06/M07 A3029 RMK A01 T10611073  RH  091%=      5-min Rain = 0
KTAS 091102Z 31007KT M06/M07 A3029 RMK A01 T10611073  RH  091%=      5-min Rain = 0
KTAS 091103Z 31007KT M06/M07 A3029 RMK A01 T10611074  RH  091%=      5-min Rain = 0
KTAS 091104Z 31007KT M06/M07 A3029 RMK A01 T10621074  RH  091%=      5-min Rain = 0
KTAS 091105Z 31006KT M06/M07 A3029 RMK A01 T10621074  RH  091%=      5-min Rain = 0
KTAS 091106Z 32006KT M06/M07 A3029 RMK A01 T10621074  RH  091%=      5-min Rain = 0
KTAS 091107Z 31006KT M06/M07 A3029 RMK A01 T10621074  RH  091%=      5-min Rain = 0
KTAS 091108Z 31007KT M06/M07 A3029 RMK A01 T10621074  RH  091%=      5-min Rain = 0
KTAS 091109Z 32006KT M06/M08 A3029 RMK A01 T10621075  RH  091%=      5-min Rain = 0
KTAS 091110Z 32006KT M06/M08 A3029 RMK A01 T10631075  RH  091%=      5-min Rain = 0
KTAS 091111Z 32007KT M06/M08 A3029 RMK A01 T10631075  RH  091%=      5-min Rain = 0
KTAS 091112Z 32007KT M06/M08 A3029 RMK A01 T10621075  RH  091%=      5-min Rain = 0
KTAS 091113Z 32006KT M06/M08 A3029 RMK A01 T10631075  RH  091%=      5-min Rain = 0
KTAS 091114Z 32007KT M06/M08 A3029 RMK A01 T10631075  RH  091%=      5-min Rain = 0
KTAS 091115Z 32007KT M06/M08 A3029 RMK A01 T10631076  RH  091%=      5-min Rain = 0
KTAS 091116Z 32006KT M06/M08 A3029 RMK A01 T10631076  RH  091%=      5-min Rain = 0
KTAS 091117Z 32006KT M06/M08 A3029 RMK A01 T10641076  RH  091%=      5-min Rain = 0
KTAS 091118Z 32007KT M06/M08 A3029 RMK A01 T10641077  RH  091%=      5-min Rain = 0
KTAS 091119Z 32007KT M07/M08 A3029 RMK A01 T10651077  RH  091%=      5-min Rain = 0
KTAS 091120Z 32007KT M07/M08 A3029 RMK A01 T10651077  RH  091%=      5-min Rain = 0
KTAS 091121Z 32007KT M07/M08 A3029 RMK A01 T10651078  RH  091%=      5-min Rain = 0
KTAS 091122Z 32007KT M07/M08 A3029 RMK A01 T10651078  RH  091%=      5-min Rain = 0
KTAS 091123Z 32007KT M07/M08 A3029 RMK A01 T10651078  RH  091%=      5-min Rain = 0
KTAS 091124Z 32007KT M07/M08 A3029 RMK A01 T10651078  RH  091%=      5-min Rain = 0
KTAS 091125Z 32007KT M07/M08 A3029 RMK A01 T10651078  RH  091%=      5-min Rain = 0
KTAS 091126Z 32007KT M07/M08 A3029 RMK A01 T10651078  RH  091%=      5-min Rain = 0
KTAS 091127Z 32007KT M07/M08 A3029 RMK A01 T10651078  RH  091%=      5-min Rain = 0
KTAS 091128Z 32006KT M07/M08 A3029 RMK A01 T10651078  RH  091%=      5-min Rain = 0
KTAS 091129Z 32007KT M07/M08 A3029 RMK A01 T10651078  RH  091%=      5-min Rain = 0
KTAS 091130Z 32007KT M07/M08 A3029 RMK A01 T10651078  RH  091%=      5-min Rain = 0
KTAS 091131Z 32006KT M07/M08 A3029 RMK A01 T10651078  RH  091%=      5-min Rain = 0
KTAS 091132Z 32006KT M07/M08 A3029 RMK A01 T10651078  RH  091%=      5-min Rain = 0
KTAS 091133Z 32006KT M07/M08 A3029 RMK A01 T10651078  RH  091%=      5-min Rain = 0
KTAS 091134Z 32006KT M07/M08 A3029 RMK A01 T10651078  RH  091%=      5-min Rain = 0
KTAS 091135Z 32006KT M07/M08 A303 RMK A01 T10651078  RH  091%=      5-min Rain = 0
KTAS 091136Z 32006KT M07/M08 A303 RMK A01 T10651078  RH  091%=      5-min Rain = 0
KTAS 091137Z 32006KT M07/M08 A303 RMK A01 T10651078  RH  091%=      5-min Rain = 0
KTAS 091138Z 33006KT M07/M08 A303 RMK A01 T10651078  RH  091%=      5-min Rain = 0
KTAS 091139Z 33006KT M07/M08 A303 RMK A01 T10651078  RH  091%=      5-min Rain = 0
KTAS 091140Z 33006KT M07/M08 A303 RMK A01 T10651078  RH  091%=      5-min Rain = 0
KTAS 091141Z 33006KT M07/M08 A303 RMK A01 T10661078  RH  091%=      5-min Rain = 0
KTAS 091142Z 33005KT M07/M08 A303 RMK A01 T10661078  RH  091%=      5-min Rain = 0
KTAS 091143Z 33005KT M07/M08 A303 RMK A01 T10651078  RH  091%=      5-min Rain = 0
KTAS 091144Z 33005KT M07/M08 A303 RMK A01 T10651078  RH  091%=      5-min Rain = 0
KTAS 091145Z 33004KT M07/M08 A303 RMK A01 T10661078  RH  091%=      5-min Rain = 0
KTAS 091146Z 33005KT M07/M08 A303 RMK A01 T10661078  RH  091%=      5-min Rain = 0
KTAS 091147Z 33004KT M07/M08 A303 RMK A01 T10651078  RH  091%=      5-min Rain = 0
KTAS 091148Z 33004KT M07/M08 A303 RMK A01 T10651078  RH  091%=      5-min Rain = 0
KTAS 091149Z 32005KT M07/M08 A303 RMK A01 T10651078  RH  091%=      5-min Rain = 0
KTAS 091150Z 32005KT M07/M08 A303 RMK A01 T10661079  RH  091%=      5-min Rain = 0
KTAS 091151Z 32005KT M07/M08 A303 RMK A01 T10661079  RH  091%=      5-min Rain = 0
KTAS 091152Z 32005KT M07/M08 A303 RMK A01 T10661079  RH  091%=      5-min Rain = 0
KTAS 091153Z 32005KT M07/M08 A303 RMK A01 T10671080  RH  091%=      5-min Rain = 0
KTAS 091154Z 32005KT M07/M08 A303 RMK A01 T10671080  RH  091%=      5-min Rain = 0
KTAS 091155Z 32005KT M07/M08 A303 RMK A01 T10671080  RH  091%=      5-min Rain = 0
KTAS 091156Z 32005KT M07/M08 A303 RMK A01 T10671080  RH  091%=      5-min Rain = 0
KTAS 091157Z 32005KT M07/M08 A303 RMK A01 T10671080  RH  090%=      5-min Rain = 0
KTAS 091158Z 32005KT M07/M08 A303 RMK A01 T10671080  RH  090%=      5-min Rain = 0
KTAS 091159Z 32005KT M07/M08 A303 RMK A01 T10671081  RH  090%=      5-min Rain = 0
KTAS 091200Z 32005KT M07/M08 A303 RMK A01 T10671081  RH  090%=      5-min Rain = 0
KTAS 091201Z 32006KT M07/M08 A303 RMK A01 T10681081  RH  090%=      5-min Rain = 0
KTAS 091202Z 32006KT M07/M08 A303 RMK A01 T10681081  RH  090%=      5-min Rain = 0
KTAS 091203Z 32005KT M07/M08 A3031 RMK A01 T10681081  RH  090%=      5-min Rain = 0
KTAS 091204Z 32005KT M07/M08 A3031 RMK A01 T10681081  RH  090%=      5-min Rain = 0
KTAS 091205Z 32005KT M07/M08 A3031 RMK A01 T10681081  RH  090%=      5-min Rain = 0
KTAS 091206Z 32005KT M07/M08 A3031 RMK A01 T10681081  RH  090%=      5-min Rain = 0
KTAS 091207Z 32005KT M07/M08 A3031 RMK A01 T10681081  RH  090%=      5-min Rain = 0
KTAS 091208Z 32005KT M07/M08 A3031 RMK A01 T10671080  RH  090%=      5-min Rain = 0
KTAS 091209Z 32005KT M07/M08 A3031 RMK A01 T10671080  RH  090%=      5-min Rain = 0
KTAS 091210Z 32004KT M07/M08 A3031 RMK A01 T10671081  RH  090%=      5-min Rain = 0
KTAS 091211Z 32004KT M07/M08 A3031 RMK A01 T10681081  RH  090%=      5-min Rain = 0
KTAS 091212Z 32004KT M07/M08 A3031 RMK A01 T10681081  RH  090%=      5-min Rain = 0
KTAS 091213Z 31003KT M07/M08 A3031 RMK A01 T10681081  RH  090%=      5-min Rain = 0
KTAS 091214Z 31003KT M07/M08 A3031 RMK A01 T10681081  RH  090%=      5-min Rain = 0
KTAS 091215Z 31003KT M07/M08 A3031 RMK A01 T10681081  RH  090%=      5-min Rain = 0
KTAS 091216Z 31004KT M07/M08 A3031 RMK A01 T10681081  RH  090%=      5-min Rain = 0
KTAS 091217Z 31003KT M07/M08 A3031 RMK A01 T10681082  RH  090%=      5-min Rain = 0
KTAS 091218Z 31003KT M07/M08 A3031 RMK A01 T10681082  RH  090%=      5-min Rain = 0
KTAS 091219Z 32003KT M07/M08 A3031 RMK A01 T10691082  RH  090%=      5-min Rain = 0
KTAS 091220Z 32003KT M07/M08 A3031 RMK A01 T10691082  RH  090%=      5-min Rain = 0
KTAS 091221Z 32003KT M07/M08 A3031 RMK A01 T10691082  RH  090%=      5-min Rain = 0
KTAS 091222Z 32003KT M07/M08 A3031 RMK A01 T10691082  RH  090%=      5-min Rain = 0
KTAS 091223Z 32003KT M07/M08 A3032 RMK A01 T10691082  RH  090%=      5-min Rain = 0
KTAS 091224Z 31002KT M07/M08 A3032 RMK A01 T10691083  RH  090%=      5-min Rain = 0
KTAS 091225Z 31002KT M07/M08 A3032 RMK A01 T10691083  RH  090%=      5-min Rain = 0
KTAS 091226Z 31002KT M07/M08 A3032 RMK A01 T10701083  RH  090%=      5-min Rain = 0
KTAS 091227Z 31002KT M07/M08 A3032 RMK A01 T10701083  RH  090%=      5-min Rain = 0
KTAS 091228Z 31002KT M07/M08 A3032 RMK A01 T10701083  RH  090%=      5-min Rain = 0
KTAS 091229Z 31002KT M07/M08 A3032 RMK A01 T10701083  RH  090%=      5-min Rain = 0
KTAS 091230Z 31002KT M07/M08 A3032 RMK A01 T10701083  RH  090%=      5-min Rain = 0
KTAS 091231Z 31002KT M07/M08 A3032 RMK A01 T10701083  RH  090%=      5-min Rain = 0
KTAS 091232Z 31002KT M07/M08 A3032 RMK A01 T10701083  RH  090%=      5-min Rain = 0
KTAS 091233Z 31002KT M07/M08 A3032 RMK A01 T10691083  RH  090%=      5-min Rain = 0
KTAS 091234Z 31002KT M07/M08 A3032 RMK A01 T10691082  RH  090%=      5-min Rain = 0
KTAS 091235Z 31002KT M07/M08 A3032 RMK A01 T10681082  RH  090%=      5-min Rain = 0
KTAS 091236Z 31002KT M07/M08 A3032 RMK A01 T10681081  RH  090%=      5-min Rain = 0
KTAS 091237Z 32003KT M07/M08 A3032 RMK A01 T10671080  RH  090%=      5-min Rain = 0
KTAS 091238Z 32003KT M07/M08 A3032 RMK A01 T10661079  RH  090%=      5-min Rain = 0
KTAS 091239Z 32003KT M07/M08 A3032 RMK A01 T10661079  RH  090%=      5-min Rain = 0
KTAS 091240Z 31003KT M07/M08 A3032 RMK A01 T10651078  RH  091%=      5-min Rain = 0
KTAS 091241Z 31003KT M07/M08 A3032 RMK A01 T10651078  RH  091%=      5-min Rain = 0
KTAS 091242Z 31003KT M07/M08 A3032 RMK A01 T10651077  RH  091%=      5-min Rain = 0
KTAS 091243Z 31003KT M07/M08 A3032 RMK A01 T10651077  RH  091%=      5-min Rain = 0
KTAS 091244Z 30002KT M07/M08 A3032 RMK A01 T10651078  RH  091%=      5-min Rain = 0
KTAS 091245Z 30003KT M07/M08 A3032 RMK A01 T10661079  RH  091%=      5-min Rain = 0
KTAS 091246Z 30003KT M07/M08 A3032 RMK A01 T10671080  RH  090%=      5-min Rain = 0
KTAS 091247Z 31004KT M07/M08 A3032 RMK A01 T10681081  RH  090%=      5-min Rain = 0
KTAS 091248Z 31004KT M07/M08 A3032 RMK A01 T10681082  RH  090%=      5-min Rain = 0
KTAS 091249Z 32004KT M07/M08 A3032 RMK A01 T10681082  RH  090%=      5-min Rain = 0
KTAS 091250Z 32004KT M07/M08 A3032 RMK A01 T10691082  RH  090%=      5-min Rain = 0
KTAS 091251Z 32004KT M07/M08 A3032 RMK A01 T10691083  RH  090%=      5-min Rain = 0
KTAS 091252Z 31004KT M07/M08 A3032 RMK A01 T10701083  RH  090%=      5-min Rain = 0
KTAS 091253Z 31004KT M07/M08 A3032 RMK A01 T10701083  RH  090%=      5-min Rain = 0
KTAS 091254Z 31004KT M07/M08 A3032 RMK A01 T10701083  RH  090%=      5-min Rain = 0
KTAS 091255Z 31004KT M07/M08 A3032 RMK A01 T10701084  RH  090%=      5-min Rain = 0
KTAS 091256Z 31004KT M07/M08 A3032 RMK A01 T10701084  RH  090%=      5-min Rain = 0
KTAS 091257Z 30003KT M07/M08 A3032 RMK A01 T10711084  RH  090%=      5-min Rain = 0
KTAS 091258Z 31003KT M07/M09 A3032 RMK A01 T10711085  RH  090%=      5-min Rain = 0
KTAS 091259Z 31003KT M07/M09 A3032 RMK A01 T10711085  RH  090%=      5-min Rain = 0
KTAS 091300Z 31003KT M07/M09 A3032 RMK A01 T10721086  RH  090%=      5-min Rain = 0
KTAS 091301Z 31002KT M07/M09 A3032 RMK A01 T10721086  RH  090%=      5-min Rain = 0
KTAS 091302Z 31002KT M07/M09 A3032 RMK A01 T10721086  RH  090%=      5-min Rain = 0
KTAS 091303Z 31002KT M07/M09 A3032 RMK A01 T10721086  RH  090%=      5-min Rain = 0
KTAS 091304Z 31002KT M07/M09 A3032 RMK A01 T10731087  RH  090%=      5-min Rain = 0
KTAS 091305Z 31002KT M07/M09 A3032 RMK A01 T10731087  RH  090%=      5-min Rain = 0
KTAS 091306Z 31002KT M07/M09 A3033 RMK A01 T10731087  RH  090%=      5-min Rain = 0
KTAS 091307Z 31002KT M07/M09 A3033 RMK A01 T10731087  RH  090%=      5-min Rain = 0
KTAS 091308Z 30002KT M07/M09 A3033 RMK A01 T10731087  RH  090%=      5-min Rain = 0
KTAS 091309Z 30003KT M07/M09 A3033 RMK A01 T10731087  RH  090%=      5-min Rain = 0
KTAS 091310Z 30003KT M07/M09 A3033 RMK A01 T10731087  RH  090%=      5-min Rain = 0
KTAS 091311Z 30003KT M07/M09 A3033 RMK A01 T10721086  RH  090%=      5-min Rain = 0
KTAS 091312Z 30003KT M07/M09 A3033 RMK A01 T10721086  RH  090%=      5-min Rain = 0
KTAS 091313Z 30003KT M07/M09 A3033 RMK A01 T10721086  RH  090%=      5-min Rain = 0
KTAS 091314Z 30003KT M07/M09 A3033 RMK A01 T10721086  RH  090%=      5-min Rain = 0
KTAS 091315Z 29003KT M07/M09 A3033 RMK A01 T10711085  RH  090%=      5-min Rain = 0
KTAS 091316Z 29003KT M07/M09 A3033 RMK A01 T10711085  RH  090%=      5-min Rain = 0
KTAS 091317Z 29004KT M07/M09 A3033 RMK A01 T10721086  RH  090%=      5-min Rain = 0
KTAS 091318Z 29004KT M07/M09 A3033 RMK A01 T10721086  RH  090%=      5-min Rain = 0
KTAS 091319Z 29004KT M07/M09 A3033 RMK A01 T10721086  RH  090%=      5-min Rain = 0
KTAS 091320Z 29003KT M07/M09 A3033 RMK A01 T10721086  RH  090%=      5-min Rain = 0
KTAS 091321Z 29003KT M07/M09 A3033 RMK A01 T10721086  RH  090%=      5-min Rain = 0
KTAS 091322Z 29004KT M07/M09 A3034 RMK A01 T10721086  RH  090%=      5-min Rain = 0
KTAS 091323Z 30004KT M07/M09 A3034 RMK A01 T10721086  RH  090%=      5-min Rain = 0
KTAS 091324Z 30004KT M07/M09 A3033 RMK A01 T10721086  RH  090%=      5-min Rain = 0
KTAS 091325Z 30004KT M07/M09 A3034 RMK A01 T10721085  RH  090%=      5-min Rain = 0
KTAS 091326Z 31004KT M07/M09 A3034 RMK A01 T10711085  RH  090%=      5-min Rain = 0
KTAS 091327Z 31004KT M07/M09 A3034 RMK A01 T10711085  RH  090%=      5-min Rain = 0
KTAS 091328Z 31004KT M07/M09 A3034 RMK A01 T10711085  RH  090%=      5-min Rain = 0
KTAS 091329Z 31004KT M07/M09 A3034 RMK A01 T10711085  RH  090%=      5-min Rain = 0
KTAS 091330Z 31005KT M07/M09 A3034 RMK A01 T10711085  RH  090%=      5-min Rain = 0
KTAS 091331Z 31005KT M07/M09 A3034 RMK A01 T10721085  RH  090%=      5-min Rain = 0
KTAS 091332Z 31005KT M07/M09 A3034 RMK A01 T10721086  RH  090%=      5-min Rain = 0
KTAS 091333Z 31005KT M07/M09 A3034 RMK A01 T10721085  RH  090%=      5-min Rain = 0
KTAS 091334Z 31005KT M07/M09 A3034 RMK A01 T10711085  RH  090%=      5-min Rain = 0
KTAS 091335Z 31005KT M07/M08 A3034 RMK A01 T10701084  RH  090%=      5-min Rain = 0
KTAS 091336Z 31005KT M07/M08 A3034 RMK A01 T10701083  RH  090%=      5-min Rain = 0
KTAS 091337Z 31005KT M07/M08 A3034 RMK A01 T10701083  RH  090%=      5-min Rain = 0
KTAS 091338Z 31005KT M07/M08 A3034 RMK A01 T10701084  RH  090%=      5-min Rain = 0
KTAS 091339Z 31006KT M07/M08 A3034 RMK A01 T10701084  RH  090%=      5-min Rain = 0
KTAS 091340Z 31005KT M07/M08 A3034 RMK A01 T10701084  RH  090%=      5-min Rain = 0
KTAS 091341Z 31006KT M07/M08 A3034 RMK A01 T10691083  RH  090%=      5-min Rain = 0
KTAS 091342Z 32006KT M07/M08 A3034 RMK A01 T10691082  RH  090%=      5-min Rain = 0
KTAS 091343Z 32006KT M07/M08 A3034 RMK A01 T10681081  RH  090%=      5-min Rain = 0
KTAS 091344Z 32006KT M07/M08 A3034 RMK A01 T10671080  RH  090%=      5-min Rain = 0
KTAS 091345Z 31006KT M07/M08 A3034 RMK A01 T10661079  RH  090%=      5-min Rain = 0
KTAS 091346Z 31006KT M07/M08 A3034 RMK A01 T10651078  RH  090%=      5-min Rain = 0
KTAS 091347Z 32005KT M07/M08 A3034 RMK A01 T10651078  RH  090%=      5-min Rain = 0
KTAS 091348Z 32006KT M07/M08 A3034 RMK A01 T10651078  RH  090%=      5-min Rain = 0
KTAS 091349Z 31005KT M06/M08 A3034 RMK A01 T10641077  RH  091%=      5-min Rain = 0
KTAS 091350Z 31005KT M06/M08 A3034 RMK A01 T10631076  RH  091%=      5-min Rain = 0
KTAS 091351Z 31006KT M06/M08 A3034 RMK A01 T10631076  RH  091%=      5-min Rain = 0
KTAS 091352Z 31005KT M06/M08 A3035 RMK A01 T10631076  RH  091%=      5-min Rain = 0
KTAS 091353Z 31006KT M06/M08 A3035 RMK A01 T10631076  RH  091%=      5-min Rain = 0
KTAS 091354Z 31006KT M06/M08 A3035 RMK A01 T10631076  RH  091%=      5-min Rain = 0
KTAS 091355Z 31006KT M06/M08 A3035 RMK A01 T10631076  RH  091%=      5-min Rain = 0
KTAS 091356Z 31006KT M06/M08 A3035 RMK A01 T10621075  RH  091%=      5-min Rain = 0
KTAS 091357Z 32006KT M06/M08 A3035 RMK A01 T10621075  RH  091%=      5-min Rain = 0
KTAS 091358Z 32006KT M06/M08 A3035 RMK A01 T10621075  RH  091%=      5-min Rain = 0
KTAS 091359Z 32006KT M06/M07 A3035 RMK A01 T10621074  RH  091%=      5-min Rain = 0
KTAS 091400Z 32006KT M06/M07 A3035 RMK A01 T10611074  RH  091%=      5-min Rain = 0
KTAS 091401Z 32005KT M06/M07 A3035 RMK A01 T10601073  RH  091%=      5-min Rain = 0
KTAS 091402Z 32005KT M06/M07 A3035 RMK A01 T10601073  RH  091%=      5-min Rain = 0
KTAS 091403Z 32005KT M06/M07 A3035 RMK A01 T10601073  RH  091%=      5-min Rain = 0
KTAS 091404Z 32005KT M06/M07 A3035 RMK A01 T10601072  RH  091%=      5-min Rain = 0
KTAS 091405Z 32005KT M06/M07 A3035 RMK A01 T10591072  RH  091%=      5-min Rain = 0
KTAS 091406Z 32005KT M06/M07 A3035 RMK A01 T10591071  RH  091%=      5-min Rain = 0
KTAS 091407Z 32005KT M06/M07 A3035 RMK A01 T10581071  RH  091%=      5-min Rain = 0
KTAS 091408Z 32005KT M06/M07 A3035 RMK A01 T10581071  RH  091%=      5-min Rain = 0
KTAS 091409Z 31005KT M06/M07 A3035 RMK A01 T10581070  RH  091%=      5-min Rain = 0
KTAS 091410Z 31005KT M06/M07 A3035 RMK A01 T10571070  RH  091%=      5-min Rain = 0
KTAS 091411Z 31005KT M06/M07 A3035 RMK A01 T10561069  RH  091%=      5-min Rain = 0
KTAS 091412Z 31004KT M06/M07 A3035 RMK A01 T10561068  RH  091%=      5-min Rain = 0
KTAS 091413Z 31005KT M06/M07 A3035 RMK A01 T10551068  RH  091%=      5-min Rain = 0
KTAS 091414Z 31005KT M06/M07 A3035 RMK A01 T10551067  RH  091%=      5-min Rain = 0
KTAS 091415Z 31005KT M05/M07 A3035 RMK A01 T10541067  RH  091%=      5-min Rain = 0
KTAS 091416Z 31006KT M05/M07 A3035 RMK A01 T10541067  RH  091%=      5-min Rain = 0
KTAS 091417Z 31006KT M05/M07 A3035 RMK A01 T10531066  RH  091%=      5-min Rain = 0
KTAS 091418Z 31006KT M05/M07 A3035 RMK A01 T10531065  RH  091%=      5-min Rain = 0
KTAS 091419Z 31006KT M05/M07 A3035 RMK A01 T10521065  RH  091%=      5-min Rain = 0
KTAS 091420Z 30006KT M05/M06 A3035 RMK A01 T10511064  RH  091%=      5-min Rain = 0
KTAS 091421Z 30006KT M05/M06 A3035 RMK A01 T10511063  RH  091%=      5-min Rain = 0
KTAS 091422Z 31006KT M05/M06 A3035 RMK A01 T10501063  RH  091%=      5-min Rain = 0
KTAS 091423Z 31007KT M05/M06 A3035 RMK A01 T10501062  RH  091%=      5-min Rain = 0
KTAS 091424Z 30006KT M05/M06 A3035 RMK A01 T10501062  RH  091%=      5-min Rain = 0
KTAS 091425Z 30006KT M05/M06 A3035 RMK A01 T10491062  RH  091%=      5-min Rain = 0
KTAS 091426Z 30006KT M05/M06 A3035 RMK A01 T10491062  RH  091%=      5-min Rain = 0
KTAS 091427Z 30006KT M05/M06 A3035 RMK A01 T10491062  RH  091%=      5-min Rain = 0
KTAS 091428Z 31006KT M05/M06 A3035 RMK A01 T10491062  RH  091%=      5-min Rain = 0
KTAS 091429Z 31006KT M05/M06 A3035 RMK A01 T10491061  RH  091%=      5-min Rain = 0
KTAS 091430Z 31006KT M05/M06 A3035 RMK A01 T10481060  RH  091%=      5-min Rain = 0
KTAS 091431Z 31006KT M05/M06 A3035 RMK A01 T10471059  RH  091%=      5-min Rain = 0
KTAS 091432Z 31005KT M05/M06 A3035 RMK A01 T10461059  RH  091%=      5-min Rain = 0
KTAS 091433Z 31006KT M05/M06 A3035 RMK A01 T10461058  RH  091%=      5-min Rain = 0
KTAS 091434Z 32005KT M05/M06 A3035 RMK A01 T10451058  RH  091%=      5-min Rain = 0
KTAS 091435Z 32005KT M05/M06 A3035 RMK A01 T10451057  RH  091%=      5-min Rain = 0
KTAS 091436Z 32005KT M04/M06 A3035 RMK A01 T10441056  RH  091%=      5-min Rain = 0
KTAS 091437Z 32005KT M04/M06 A3036 RMK A01 T10431055  RH  091%=      5-min Rain = 0
KTAS 091438Z 32005KT M04/M05 A3036 RMK A01 T10421054  RH  091%=      5-min Rain = 0
KTAS 091439Z 31004KT M04/M05 A3036 RMK A01 T10411053  RH  091%=      5-min Rain = 0
KTAS 091440Z 32004KT M04/M05 A3036 RMK A01 T10401052  RH  091%=      5-min Rain = 0
KTAS 091441Z 31005KT M04/M05 A3036 RMK A01 T10391051  RH  091%=      5-min Rain = 0
KTAS 091442Z 32005KT M04/M05 A3036 RMK A01 T10381051  RH  091%=      5-min Rain = 0
KTAS 091443Z 32006KT M04/M05 A3036 RMK A01 T10381051  RH  091%=      5-min Rain = 0
KTAS 091444Z 32005KT M04/M05 A3036 RMK A01 T10381050  RH  091%=      5-min Rain = 0
KTAS 091445Z 32004KT M04/M05 A3036 RMK A01 T10371050  RH  091%=      5-min Rain = 0
KTAS 091446Z 32005KT M04/M05 A3036 RMK A01 T10371050  RH  091%=      5-min Rain = 0
KTAS 091447Z 33005KT M04/M05 A3036 RMK A01 T10371049  RH  091%=      5-min Rain = 0
KTAS 091448Z 33005KT M04/M05 A3036 RMK A01 T10361049  RH  091%=      5-min Rain = 0
KTAS 091449Z 33006KT M04/M05 A3036 RMK A01 T10361049  RH  091%=      5-min Rain = 0
KTAS 091450Z 33005KT M04/M05 A3036 RMK A01 T10361049  RH  091%=      5-min Rain = 0
KTAS 091451Z 33005KT M04/M05 A3036 RMK A01 T10361049  RH  091%=      5-min Rain = 0
KTAS 091452Z 32006KT M04/M05 A3036 RMK A01 T10361049  RH  091%=      5-min Rain = 0
KTAS 091453Z 32006KT M04/M05 A3036 RMK A01 T10371050  RH  091%=      5-min Rain = 0
KTAS 091454Z 32006KT M04/M05 A3036 RMK A01 T10371050  RH  091%=      5-min Rain = 0
KTAS 091455Z 32005KT M04/M05 A3036 RMK A01 T10361049  RH  091%=      5-min Rain = 0
KTAS 091456Z 32006KT M04/M05 A3036 RMK A01 T10351048  RH  091%=      5-min Rain = 0
KTAS 091457Z 32005KT M04/M05 A3036 RMK A01 T10351048  RH  091%=      5-min Rain = 0
KTAS 091458Z 32005KT M04/M05 A3036 RMK A01 T10351048  RH  091%=      5-min Rain = 0
KTAS 091459Z 32004KT M03/M05 A3036 RMK A01 T10341047  RH  091%=      5-min Rain = 0
KTAS 091500Z 32004KT M03/M05 A3036 RMK A01 T10331045  RH  091%=      5-min Rain = 0
KTAS 091501Z 32005KT M03/M04 A3036 RMK A01 T10321044  RH  091%=      5-min Rain = 0
KTAS 091502Z 33004KT M03/M05 A3036 RMK A01 T10321045  RH  091%=      5-min Rain = 0
KTAS 091503Z 32004KT M03/M05 A3036 RMK A01 T10321045  RH  091%=      5-min Rain = 0
KTAS 091504Z 33005KT M03/M04 A3036 RMK A01 T10311044  RH  091%=      5-min Rain = 0
KTAS 091505Z 33004KT M03/M04 A3036 RMK A01 T10301043  RH  091%=      5-min Rain = 0
KTAS 091506Z 33005KT M03/M04 A3036 RMK A01 T10301043  RH  091%=      5-min Rain = 0
KTAS 091507Z 33006KT M03/M04 A3036 RMK A01 T10301043  RH  091%=      5-min Rain = 0
KTAS 091508Z 33006KT M03/M04 A3037 RMK A01 T10301043  RH  091%=      5-min Rain = 0
KTAS 091509Z 34006KT M03/M04 A3037 RMK A01 T10301044  RH  090%=      5-min Rain = 0
KTAS 091510Z 34005KT M03/M04 A3037 RMK A01 T10311044  RH  090%=      5-min Rain = 0
KTAS 091511Z 33004KT M03/M04 A3037 RMK A01 T10301044  RH  090%=      5-min Rain = 0
KTAS 091512Z 33004KT M03/M04 A3037 RMK A01 T10291043  RH  090%=      5-min Rain = 0
KTAS 091513Z 33004KT M03/M04 A3037 RMK A01 T10281041  RH  091%=      5-min Rain = 0
KTAS 091514Z 34004KT M03/M04 A3037 RMK A01 T10271041  RH  090%=      5-min Rain = 0
KTAS 091515Z 34005KT M03/M04 A3037 RMK A01 T10261039  RH  091%=      5-min Rain = 0
KTAS 091516Z 34004KT M02/M04 A3037 RMK A01 T10241038  RH  091%=      5-min Rain = 0
KTAS 091517Z 34005KT M02/M04 A3037 RMK A01 T10231037  RH  091%=      5-min Rain = 0
KTAS 091518Z 33005KT M03/M04 A3037 RMK A01 T10261040  RH  090%=      5-min Rain = 0
KTAS 091519Z 33006KT M03/M04 A3037 RMK A01 T10271041  RH  090%=      5-min Rain = 0
KTAS 091520Z 33006KT M03/M04 A3037 RMK A01 T10281042  RH  090%=      5-min Rain = 0
KTAS 091521Z 33004KT M03/M04 A3038 RMK A01 T10281042  RH  090%=      5-min Rain = 0
KTAS 091522Z 34005KT M03/M04 A3038 RMK A01 T10261040  RH  090%=      5-min Rain = 0
KTAS 091523Z 34005KT M03/M04 A3038 RMK A01 T10261040  RH  090%=      5-min Rain = 0
KTAS 091524Z 34005KT M03/M04 A3038 RMK A01 T10261041  RH  090%=      5-min Rain = 0
KTAS 091525Z 34003KT M03/M04 A3038 RMK A01 T10271041  RH  090%=      5-min Rain = 0
KTAS 091526Z 33004KT M03/M04 A3038 RMK A01 T10261040  RH  090%=      5-min Rain = 0
KTAS 091527Z 33003KT M03/M04 A3038 RMK A01 T10261040  RH  090%=      5-min Rain = 0
KTAS 091528Z 33004KT M03/M04 A3038 RMK A01 T10251039  RH  090%=      5-min Rain = 0
KTAS 091529Z 34004KT M03/M04 A3038 RMK A01 T10251039  RH  090%=      5-min Rain = 0
KTAS 091530Z 34003KT M02/M04 A3038 RMK A01 T10241039  RH  090%=      5-min Rain = 0
KTAS 091531Z 33002KT M02/M04 A3038 RMK A01 T10221037  RH  090%=      5-min Rain = 0
KTAS 091532Z 33003KT M02/M04 A3038 RMK A01 T10211036  RH  090%=      5-min Rain = 0
KTAS 091533Z 34003KT M02/M04 A3038 RMK A01 T10201035  RH  090%=      5-min Rain = 0
KTAS 091534Z 34004KT M02/M04 A3038 RMK A01 T10211036  RH  090%=      5-min Rain = 0
KTAS 091535Z 34004KT M02/M04 A3038 RMK A01 T10211036  RH  089%=      5-min Rain = 0
KTAS 091536Z 34005KT M02/M04 A3038 RMK A01 T10211037  RH  089%=      5-min Rain = 0
KTAS 091537Z 34005KT M02/M04 A3038 RMK A01 T10221037  RH  089%=      5-min Rain = 0
KTAS 091538Z 35005KT M02/M04 A3038 RMK A01 T10231038  RH  089%=      5-min Rain = 0
KTAS 091539Z 34005KT M02/M04 A3038 RMK A01 T10231039  RH  089%=      5-min Rain = 0
KTAS 091540Z 34005KT M02/M04 A3039 RMK A01 T10221037  RH  089%=      5-min Rain = 0
KTAS 091541Z 34005KT M02/M04 A3039 RMK A01 T10211037  RH  089%=      5-min Rain = 0
KTAS 091542Z 33004KT M02/M04 A3039 RMK A01 T10211036  RH  089%=      5-min Rain = 0
KTAS 091543Z 33005KT M02/M04 A3039 RMK A01 T10191035  RH  089%=      5-min Rain = 0
KTAS 091544Z 33005KT M02/M04 A3039 RMK A01 T10201036  RH  089%=      5-min Rain = 0
KTAS 091545Z 33005KT M02/M04 A3039 RMK A01 T10211037  RH  089%=      5-min Rain = 0
KTAS 091546Z 33005KT M02/M04 A3039 RMK A01 T10201035  RH  089%=      5-min Rain = 0
KTAS 091547Z 33005KT M02/M04 A3039 RMK A01 T10191035  RH  089%=      5-min Rain = 0
KTAS 091548Z 33004KT M02/M04 A3039 RMK A01 T10201036  RH  089%=      5-min Rain = 0
KTAS 091549Z 33004KT M02/M04 A3039 RMK A01 T10191035  RH  089%=      5-min Rain = 0
KTAS 091550Z 33004KT M02/M04 A3039 RMK A01 T10191035  RH  089%=      5-min Rain = 0
KTAS 091551Z 32004KT M02/M03 A3039 RMK A01 T10171033  RH  089%=      5-min Rain = 0
KTAS 091552Z 31004KT M02/M04 A3039 RMK A01 T10191035  RH  089%=      5-min Rain = 0
KTAS 091553Z 31004KT M02/M04 A3039 RMK A01 T10191035  RH  089%=      5-min Rain = 0
KTAS 091554Z 30005KT M02/M04 A3039 RMK A01 T10191036  RH  088%=      5-min Rain = 0
KTAS 091555Z 31004KT M02/M04 A304 RMK A01 T10191036  RH  088%=      5-min Rain = 0
KTAS 091556Z 33003KT M02/M04 A304 RMK A01 T10191036  RH  088%=      5-min Rain = 0
KTAS 091557Z 34004KT M02/M03 A304 RMK A01 T10171034  RH  088%=      5-min Rain = 0
KTAS 091558Z 32003KT M02/M03 A304 RMK A01 T10161033  RH  088%=      5-min Rain = 0
KTAS 091559Z 33004KT M02/M03 A304 RMK A01 T10151032  RH  088%=      5-min Rain = 0
KTAS 091600Z 34004KT M02/M03 A304 RMK A01 T10151032  RH  088%=      5-min Rain = 0
KTAS 091601Z 34004KT M01/M03 A304 RMK A01 T10141031  RH  088%=      5-min Rain = 0
KTAS 091602Z 34005KT M01/M03 A304 RMK A01 T10141031  RH  088%=      5-min Rain = 0
KTAS 091603Z 34005KT M02/M03 A304 RMK A01 T10151032  RH  088%=      5-min Rain = 0
KTAS 091604Z 33006KT M02/M03 A304 RMK A01 T10151033  RH  088%=      5-min Rain = 0
KTAS 091605Z 34005KT M02/M04 A304 RMK A01 T10171035  RH  088%=      5-min Rain = 0
KTAS 091606Z 34005KT M02/M03 A304 RMK A01 T10161034  RH  088%=      5-min Rain = 0
KTAS 091607Z 34005KT M01/M03 A304 RMK A01 T10141032  RH  088%=      5-min Rain = 0
KTAS 091608Z 33006KT M01/M03 A304 RMK A01 T10141032  RH  088%=      5-min Rain = 0
KTAS 091609Z 34006KT M02/M03 A304 RMK A01 T10151033  RH  087%=      5-min Rain = 0
KTAS 091610Z 34006KT M02/M03 A304 RMK A01 T10151034  RH  087%=      5-min Rain = 0
KTAS 091611Z 33006KT M02/M04 A304 RMK A01 T10161035  RH  087%=      5-min Rain = 0
KTAS 091612Z 34006KT M02/M04 A304 RMK A01 T10171036  RH  087%=      5-min Rain = 0
KTAS 091613Z 34006KT M02/M04 A304 RMK A01 T10171036  RH  087%=      5-min Rain = 0
KTAS 091614Z 34006KT M02/M03 A304 RMK A01 T10161034  RH  087%=      5-min Rain = 0
KTAS 091615Z 34005KT M02/M03 A304 RMK A01 T10151034  RH  087%=      5-min Rain = 0
KTAS 091616Z 34006KT M01/M03 A304 RMK A01 T10131032  RH  087%=      5-min Rain = 0
KTAS 091617Z 33005KT M01/M03 A304 RMK A01 T10121031  RH  087%=      5-min Rain = 0
KTAS 091618Z 33006KT M01/M03 A304 RMK A01 T10131032  RH  087%=      5-min Rain = 0
KTAS 091619Z 33006KT M01/M03 A304 RMK A01 T10131032  RH  087%=      5-min Rain = 0
KTAS 091620Z 33006KT M02/M04 A304 RMK A01 T10151035  RH  087%=      5-min Rain = 0
KTAS 091621Z 34006KT M02/M04 A304 RMK A01 T10161035  RH  087%=      5-min Rain = 0
KTAS 091622Z 34005KT M02/M03 A304 RMK A01 T10151034  RH  087%=      5-min Rain = 0
KTAS 091623Z 33006KT M01/M03 A304 RMK A01 T10141033  RH  087%=      5-min Rain = 0
KTAS 091624Z 33006KT M01/M03 A304 RMK A01 T10141034  RH  086%=      5-min Rain = 0
KTAS 091625Z 33006KT M02/M04 A304 RMK A01 T10151035  RH  086%=      5-min Rain = 0
KTAS 091626Z 33006KT M01/M03 A304 RMK A01 T10131033  RH  086%=      5-min Rain = 0
KTAS 091627Z 32007KT M01/M03 A304 RMK A01 T10131033  RH  086%=      5-min Rain = 0
KTAS 091628Z 32006KT M01/M03 A304 RMK A01 T10141034  RH  086%=      5-min Rain = 0
KTAS 091629Z 33006KT M01/M03 A304 RMK A01 T10141034  RH  086%=      5-min Rain = 0
KTAS 091630Z 34006KT M01/M03 A304 RMK A01 T10131033  RH  086%=      5-min Rain = 0
KTAS 091631Z 33005KT M01/M03 A304 RMK A01 T10141034  RH  086%=      5-min Rain = 0
KTAS 091632Z 33005KT M01/M03 A304 RMK A01 T10121032  RH  086%=      5-min Rain = 0
KTAS 091633Z 33005KT M01/M03 A304 RMK A01 T10101031  RH  086%=      5-min Rain = 0
KTAS 091634Z 33005KT M01/M03 A304 RMK A01 T10111031  RH  086%=      5-min Rain = 0
KTAS 091635Z 34005KT M01/M03 A304 RMK A01 T10071027  RH  086%=      5-min Rain = 0
KTAS 091636Z 33005KT M01/M03 A304 RMK A01 T10071028  RH  086%=      5-min Rain = 0
KTAS 091637Z 34005KT M01/M03 A304 RMK A01 T10081029  RH  086%=      5-min Rain = 0
KTAS 091638Z 34005KT M01/M03 A304 RMK A01 T10061027  RH  086%=      5-min Rain = 0
KTAS 091639Z 35006KT M01/M03 A304 RMK A01 T10051026  RH  086%=      5-min Rain = 0
KTAS 091640Z 00005KT M01/M03 A304 RMK A01 T10061028  RH  085%=      5-min Rain = 0
KTAS 091641Z 35006KT M01/M03 A304 RMK A01 T10061028  RH  085%=      5-min Rain = 0
KTAS 091642Z 35005KT M01/M03 A304 RMK A01 T10081031  RH  085%=      5-min Rain = 0
KTAS 091643Z 35006KT M01/M03 A304 RMK A01 T10091032  RH  085%=      5-min Rain = 0
KTAS 091644Z 34005KT M01/M03 A304 RMK A01 T10081031  RH  085%=      5-min Rain = 0
KTAS 091645Z 35007KT M01/M03 A304 RMK A01 T10071030  RH  085%=      5-min Rain = 0
KTAS 091646Z 36006KT M01/M03 A304 RMK A01 T10091032  RH  084%=      5-min Rain = 0
KTAS 091647Z 35005KT M01/M03 A304 RMK A01 T10081031  RH  084%=      5-min Rain = 0
KTAS 091648Z 00006KT M01/M03 A304 RMK A01 T10071030  RH  084%=      5-min Rain = 0
KTAS 091649Z 34006KT M01/M03 A304 RMK A01 T10061029  RH  084%=      5-min Rain = 0
KTAS 091650Z 34005KT M01/M03 A304 RMK A01 T10061030  RH  084%=      5-min Rain = 0
KTAS 091651Z 36006KT M01/M03 A304 RMK A01 T10061030  RH  084%=      5-min Rain = 0
KTAS 091652Z 00006KT M01/M03 A304 RMK A01 T10071031  RH  084%=      5-min Rain = 0
KTAS 091653Z 00006KT M01/M03 A304 RMK A01 T10061030  RH  084%=      5-min Rain = 0
KTAS 091654Z 00005KT M00/M03 A304 RMK A01 T10031027  RH  084%=      5-min Rain = 0
KTAS 091655Z 01005KT M01/M03 A304 RMK A01 T10051029  RH  084%=      5-min Rain = 0
KTAS 091656Z 35005KT M00/M03 A304 RMK A01 T10041028  RH  084%=      5-min Rain = 0
KTAS 091657Z 35005KT M00/M03 A304 RMK A01 T10031027  RH  084%=      5-min Rain = 0
KTAS 091658Z 35005KT M00/M03 A3039 RMK A01 T10031028  RH  083%=      5-min Rain = 0
KTAS 091659Z 35005KT M00/M03 A3039 RMK A01 T10031028  RH  083%=      5-min Rain = 0
KTAS 091700Z 00005KT M00/M03 A3039 RMK A01 T10021027  RH  083%=      5-min Rain = 0
KTAS 091701Z 35004KT M00/M03 A3039 RMK A01 T10011026  RH  083%=      5-min Rain = 0
KTAS 091702Z 01004KT M00/M03 A3039 RMK A01 T10011027  RH  083%=      5-min Rain = 0
KTAS 091703Z 34003KT M00/M03 A3039 RMK A01 T10011027  RH  083%=      5-min Rain = 0
KTAS 091704Z 36004KT 00/M03 A3039 RMK A01 T00011025  RH  083%=      5-min Rain = 0
KTAS 091705Z 35003KT 00/03 A3039 RMK A01 T00000-27  RH  082%=      5-min Rain = 0
KTAS 091706Z 36005KT 00/03 A3039 RMK A01 T00-00-27  RH  082%=      5-min Rain = 0
KTAS 091707Z 35003KT M00/M03 A3039 RMK A01 T10021030  RH  082%=      5-min Rain = 0
KTAS 091708Z 36003KT M00/M03 A3039 RMK A01 T10031031  RH  081%=      5-min Rain = 0
KTAS 091709Z 01003KT M00/M03 A3039 RMK A01 T10021029  RH  082%=      5-min Rain = 0
KTAS 091710Z 36002KT M00/M03 A3039 RMK A01 T10021030  RH  081%=      5-min Rain = 0
KTAS 091711Z 35003KT M00/M03 A3039 RMK A01 T10011029  RH  081%=      5-min Rain = 0
KTAS 091712Z 01003KT 00/03 A3039 RMK A01 T00000-28  RH  081%=      5-min Rain = 0
KTAS 091713Z 01002KT 00/M03 A3039 RMK A01 T00011028  RH  081%=      5-min Rain = 0
KTAS 091714Z 34002KT 00/M03 A3039 RMK A01 T00011028  RH  081%=      5-min Rain = 0
KTAS 091715Z 36003KT 00/M03 A3039 RMK A01 T00031026  RH  081%=      5-min Rain = 0
KTAS 091716Z 35001KT 00/M03 A3039 RMK A01 T00031026  RH  081%=      5-min Rain = 0
KTAS 091717Z 33001KT 00/M03 A3039 RMK A01 T00041026  RH  080%=      5-min Rain = 0
KTAS 091718Z 34003KT 01/M02 A3039 RMK A01 T00061024  RH  080%=      5-min Rain = 0
KTAS 091719Z 33002KT 00/M03 A3039 RMK A01 T00041027  RH  080%=      5-min Rain = 0
KTAS 091720Z 33002KT 01/M03 A3039 RMK A01 T00051027  RH  080%=      5-min Rain = 0
KTAS 091721Z 01002KT 01/M02 A3039 RMK A01 T00081023  RH  080%=      5-min Rain = 0
KTAS 091722Z 01002KT 01/M02 A3039 RMK A01 T00091022  RH  080%=      5-min Rain = 0
KTAS 091723Z 02001KT 01/M02 A3039 RMK A01 T00081024  RH  079%=      5-min Rain = 0
KTAS 091724Z 34002KT 01/M02 A3039 RMK A01 T00091024  RH  078%=      5-min Rain = 0
KTAS 091725Z 00002KT 01/M02 A3039 RMK A01 T00111022  RH  079%=      5-min Rain = 0
KTAS 091726Z 34003KT 01/M02 A3039 RMK A01 T00121022  RH  078%=      5-min Rain = 0
KTAS 091727Z 35002KT 01/M02 A3039 RMK A01 T00111023  RH  078%=      5-min Rain = 0
KTAS 091728Z 34003KT 01/M02 A3039 RMK A01 T00111024  RH  077%=      5-min Rain = 0
KTAS 091729Z 34003KT 01/M02 A3039 RMK A01 T00121023  RH  077%=      5-min Rain = 0
KTAS 091730Z 36003KT 01/M02 A3039 RMK A01 T00121024  RH  077%=      5-min Rain = 0
KTAS 091731Z 35003KT 01/M03 A3039 RMK A01 T00111025  RH  077%=      5-min Rain = 0
KTAS 091732Z 36003KT 01/M03 A3039 RMK A01 T00111026  RH  076%=      5-min Rain = 0
KTAS 091733Z 35004KT 01/M02 A3039 RMK A01 T00131024  RH  076%=      5-min Rain = 0
KTAS 091734Z 34004KT 01/M02 A3039 RMK A01 T00141023  RH  076%=      5-min Rain = 0
KTAS 091735Z 33004KT 01/M02 A3039 RMK A01 T00141024  RH  076%=      5-min Rain = 0
KTAS 091736Z 35002KT 01/M02 A3039 RMK A01 T00141023  RH  076%=      5-min Rain = 0
KTAS 091737Z 34003KT 02/M02 A3039 RMK A01 T00161021  RH  076%=      5-min Rain = 0
KTAS 091738Z 35003KT 02/M02 A3039 RMK A01 T00161022  RH  076%=      5-min Rain = 0
KTAS 091739Z 36003KT 02/M03 A3039 RMK A01 T00151025  RH  075%=      5-min Rain = 0
KTAS 091740Z 34002KT 02/M02 A3039 RMK A01 T00161024  RH  075%=      5-min Rain = 0
KTAS 091741Z 34003KT 02/M02 A3039 RMK A01 T00161024  RH  075%=      5-min Rain = 0
KTAS 091742Z 33003KT 02/M02 A3039 RMK A01 T00161024  RH  074%=      5-min Rain = 0
KTAS 091743Z 30003KT 02/M03 A3039 RMK A01 T00151026  RH  074%=      5-min Rain = 0
KTAS 091744Z 31004KT 02/M03 A3039 RMK A01 T00151026  RH  074%=      5-min Rain = 0
KTAS 091745Z 32003KT 02/M02 A3039 RMK A01 T00161024  RH  074%=      5-min Rain = 0
KTAS 091746Z 31004KT 02/M03 A3039 RMK A01 T00161025  RH  074%=      5-min Rain = 0
KTAS 091747Z 32004KT 02/M03 A3039 RMK A01 T00161025  RH  074%=      5-min Rain = 0
KTAS 091748Z 32002KT 02/M03 A3039 RMK A01 T00161026  RH  074%=      5-min Rain = 0
KTAS 091749Z 32001KT 02/M03 A3039 RMK A01 T00151027  RH  073%=      5-min Rain = 0
KTAS 091750Z 30002KT 02/M03 A3039 RMK A01 T00161026  RH  073%=      5-min Rain = 0
KTAS 091751Z 30002KT 02/M02 A3039 RMK A01 T00191024  RH  073%=      5-min Rain = 0
KTAS 091752Z 32002KT 02/M02 A3039 RMK A01 T00201022  RH  074%=      5-min Rain = 0
KTAS 091753Z 32003KT 02/M02 A3039 RMK A01 T00211022  RH  073%=      5-min Rain = 0
KTAS 091754Z 30003KT 02/M03 A3039 RMK A01 T00191025  RH  072%=      5-min Rain = 0
KTAS 091755Z 33003KT 02/M03 A3039 RMK A01 T00191026  RH  072%=      5-min Rain = 0
KTAS 091756Z 32003KT 02/M02 A3039 RMK A01 T00191024  RH  073%=      5-min Rain = 0
KTAS 091757Z 30003KT 02/M02 A3038 RMK A01 T00181024  RH  073%=      5-min Rain = 0
KTAS 091758Z 29004KT 02/M03 A3038 RMK A01 T00181025  RH  073%=      5-min Rain = 0
KTAS 091759Z 30004KT 02/M02 A3038 RMK A01 T00191023  RH  074%=      5-min Rain = 0
KTAS 091800Z 30004KT 02/M02 A3038 RMK A01 T00201022  RH  074%=      5-min Rain = 0
KTAS 091801Z 32004KT 02/M02 A3038 RMK A01 T00201021  RH  074%=      5-min Rain = 0
KTAS 091802Z 31004KT 02/M02 A3038 RMK A01 T00201022  RH  074%=      5-min Rain = 0
KTAS 091803Z 32004KT 02/M02 A3038 RMK A01 T00211021  RH  074%=      5-min Rain = 0
KTAS 091804Z 32005KT 02/M02 A3038 RMK A01 T00201022  RH  074%=      5-min Rain = 0
KTAS 091805Z 30005KT 02/M02 A3038 RMK A01 T00191024  RH  073%=      5-min Rain = 0
KTAS 091806Z 30006KT 02/M03 A3038 RMK A01 T00171026  RH  073%=      5-min Rain = 0
KTAS 091807Z 31004KT 02/M02 A3038 RMK A01 T00191022  RH  074%=      5-min Rain = 0
KTAS 091808Z 33005KT 02/M02 A3038 RMK A01 T00191022  RH  074%=      5-min Rain = 0
KTAS 091809Z 32004KT 02/M02 A3038 RMK A01 T00191023  RH  074%=      5-min Rain = 0
KTAS 091810Z 34004KT 02/M02 A3038 RMK A01 T00201021  RH  074%=      5-min Rain = 0
KTAS 091811Z 32004KT 02/M02 A3038 RMK A01 T00201022  RH  074%=      5-min Rain = 0
KTAS 091812Z 34004KT 02/M02 A3038 RMK A01 T00211022  RH  073%=      5-min Rain = 0
KTAS 091813Z 32004KT 02/M03 A3038 RMK A01 T00191026  RH  072%=      5-min Rain = 0
KTAS 091814Z 33003KT 02/M03 A3038 RMK A01 T00181027  RH  072%=      5-min Rain = 0
KTAS 091815Z 33004KT 02/M02 A3038 RMK A01 T00201023  RH  073%=      5-min Rain = 0
KTAS 091816Z 31003KT 02/M03 A3038 RMK A01 T00191026  RH  072%=      5-min Rain = 0
KTAS 091817Z 30002KT 02/M03 A3037 RMK A01 T00191026  RH  072%=      5-min Rain = 0
KTAS 091818Z 33005KT 02/M03 A3037 RMK A01 T00201025  RH  072%=      5-min Rain = 0
KTAS 091819Z 33004KT 02/M03 A3037 RMK A01 T00201027  RH  071%=      5-min Rain = 0
KTAS 091820Z 33004KT 02/M03 A3037 RMK A01 T00211026  RH  071%=      5-min Rain = 0
KTAS 091821Z 32003KT 02/M03 A3037 RMK A01 T00201028  RH  071%=      5-min Rain = 0
KTAS 091822Z 33004KT 02/M03 A3037 RMK A01 T00211027  RH  071%=      5-min Rain = 0
KTAS 091823Z 33005KT 02/M03 A3037 RMK A01 T00211028  RH  070%=      5-min Rain = 0
KTAS 091824Z 34004KT 02/M03 A3037 RMK A01 T00211028  RH  070%=      5-min Rain = 0
KTAS 091825Z 35004KT 02/M03 A3037 RMK A01 T00221026  RH  071%=      5-min Rain = 0
KTAS 091826Z 00004KT 02/M03 A3037 RMK A01 T00221028  RH  070%=      5-min Rain = 0
KTAS 091827Z 35003KT 02/M03 A3037 RMK A01 T00221029  RH  069%=      5-min Rain = 0
KTAS 091828Z 32003KT 02/M03 A3037 RMK A01 T00231027  RH  069%=      5-min Rain = 0
KTAS 091829Z 32004KT 03/M02 A3037 RMK A01 T00251024  RH  070%=      5-min Rain = 0
KTAS 091830Z 34003KT 03/M02 A3037 RMK A01 T00261022  RH  071%=      5-min Rain = 0
KTAS 091831Z 35004KT 03/M02 A3037 RMK A01 T00261023  RH  070%=      5-min Rain = 0
KTAS 091832Z 00003KT 03/M03 A3037 RMK A01 T00251026  RH  069%=      5-min Rain = 0
KTAS 091833Z 33003KT 03/M03 A3037 RMK A01 T00251025  RH  069%=      5-min Rain = 0
KTAS 091834Z 34003KT 03/M02 A3036 RMK A01 T00271022  RH  070%=      5-min Rain = 0
KTAS 091835Z 35003KT 03/M02 A3036 RMK A01 T00281022  RH  070%=      5-min Rain = 0
KTAS 091836Z 34004KT 03/M03 A3036 RMK A01 T00271025  RH  069%=      5-min Rain = 0
KTAS 091837Z 33003KT 03/M03 A3036 RMK A01 T00251028  RH  068%=      5-min Rain = 0
KTAS 091838Z 34003KT 02/M03 A3036 RMK A01 T00241029  RH  068%=      5-min Rain = 0
KTAS 091839Z 33002KT 03/M03 A3036 RMK A01 T00261025  RH  069%=      5-min Rain = 0
KTAS 091840Z 31003KT 03/M03 A3036 RMK A01 T00271026  RH  068%=      5-min Rain = 0
KTAS 091841Z 33003KT 03/M03 A3036 RMK A01 T00271025  RH  068%=      5-min Rain = 0
KTAS 091842Z 32004KT 03/M03 A3036 RMK A01 T00271025  RH  069%=      5-min Rain = 0
KTAS 091843Z 32004KT 03/M02 A3036 RMK A01 T00281024  RH  069%=      5-min Rain = 0
KTAS 091844Z 32003KT 03/M03 A3036 RMK A01 T00271026  RH  068%=      5-min Rain = 0
KTAS 091845Z 32003KT 03/M03 A3036 RMK A01 T00271027  RH  067%=      5-min Rain = 0
KTAS 091846Z 33004KT 03/M03 A3036 RMK A01 T00271027  RH  068%=      5-min Rain = 0
KTAS 091847Z 32002KT 03/M03 A3036 RMK A01 T00261029  RH  067%=      5-min Rain = 0
KTAS 091848Z 32004KT 03/M03 A3036 RMK A01 T00271027  RH  067%=      5-min Rain = 0
KTAS 091849Z 32004KT 03/M03 A3036 RMK A01 T00261029  RH  067%=      5-min Rain = 0
KTAS 091850Z 31004KT 03/M03 A3036 RMK A01 T00271029  RH  067%=      5-min Rain = 0
KTAS 091851Z 31004KT 03/M03 A3036 RMK A01 T00301025  RH  067%=      5-min Rain = 0
KTAS 091852Z 32003KT 03/M02 A3036 RMK A01 T00311024  RH  067%=      5-min Rain = 0
KTAS 091853Z 32004KT 03/M03 A3036 RMK A01 T00301028  RH  066%=      5-min Rain = 0
KTAS 091854Z 33004KT 03/M03 A3036 RMK A01 T00291029  RH  066%=      5-min Rain = 0
KTAS 091855Z 32004KT 03/M03 A3036 RMK A01 T00301027  RH  066%=      5-min Rain = 0
KTAS 091856Z 34004KT 03/M03 A3036 RMK A01 T00301028  RH  066%=      5-min Rain = 0
KTAS 091857Z 33003KT 03/M03 A3036 RMK A01 T00291030  RH  065%=      5-min Rain = 0
KTAS 091858Z 32004KT 03/M03 A3036 RMK A01 T00301028  RH  065%=      5-min Rain = 0
KTAS 091859Z 33004KT 03/M03 A3036 RMK A01 T00311027  RH  066%=      5-min Rain = 0
KTAS 091900Z 34003KT 03/M03 A3036 RMK A01 T00311029  RH  065%=      5-min Rain = 0
KTAS 091901Z 31004KT 03/M03 A3036 RMK A01 T00321027  RH  065%=      5-min Rain = 0
KTAS 091902Z 30004KT 03/M03 A3035 RMK A01 T00301027  RH  066%=      5-min Rain = 0
KTAS 091903Z 32005KT 03/M03 A3035 RMK A01 T00281028  RH  067%=      5-min Rain = 0
KTAS 091904Z 32004KT 03/M03 A3035 RMK A01 T00271027  RH  067%=      5-min Rain = 0
KTAS 091905Z 31004KT 03/M03 A3035 RMK A01 T00271028  RH  067%=      5-min Rain = 0
KTAS 091906Z 32004KT 03/M03 A3035 RMK A01 T00271026  RH  068%=      5-min Rain = 0
KTAS 091907Z 33005KT 03/M03 A3035 RMK A01 T00271027  RH  068%=      5-min Rain = 0
KTAS 091908Z 33004KT 03/M03 A3035 RMK A01 T00261030  RH  066%=      5-min Rain = 0
KTAS 091909Z 35004KT 03/M03 A3035 RMK A01 T00281027  RH  067%=      5-min Rain = 0
KTAS 091910Z 34004KT 03/M03 A3035 RMK A01 T00301026  RH  067%=      5-min Rain = 0
KTAS 091911Z 34004KT 03/M03 A3035 RMK A01 T00311026  RH  066%=      5-min Rain = 0
KTAS 091912Z 34005KT 03/M03 A3035 RMK A01 T00311027  RH  066%=      5-min Rain = 0
KTAS 091913Z 34005KT 03/M03 A3035 RMK A01 T00301030  RH  064%=      5-min Rain = 0
KTAS 091914Z 35004KT 03/M03 A3035 RMK A01 T00281033  RH  064%=      5-min Rain = 0
KTAS 091915Z 35004KT 03/M03 A3035 RMK A01 T00301028  RH  066%=      5-min Rain = 0
KTAS 091916Z 36003KT 03/M03 A3035 RMK A01 T00321028  RH  065%=      5-min Rain = 0
KTAS 091917Z 34004KT 03/M03 A3035 RMK A01 T00331027  RH  065%=      5-min Rain = 0
KTAS 091918Z 34003KT 03/M03 A3035 RMK A01 T00331029  RH  064%=      5-min Rain = 0
KTAS 091919Z 32003KT 03/M03 A3035 RMK A01 T00321031  RH  063%=      5-min Rain = 0
KTAS 091920Z 32004KT 03/M03 A3035 RMK A01 T00321032  RH  063%=      5-min Rain = 0
KTAS 091921Z 31004KT 03/M03 A3035 RMK A01 T00311033  RH  063%=      5-min Rain = 0
KTAS 091922Z 34005KT 03/M03 A3035 RMK A01 T00321030  RH  064%=      5-min Rain = 0
KTAS 091923Z 34004KT 03/M03 A3035 RMK A01 T00321031  RH  063%=      5-min Rain = 0
KTAS 091924Z 33003KT 03/M03 A3035 RMK A01 T00331029  RH  064%=      5-min Rain = 0
KTAS 091925Z 33004KT 03/M03 A3035 RMK A01 T00341028  RH  064%=      5-min Rain = 0
KTAS 091926Z 35004KT 03/M03 A3035 RMK A01 T00341030  RH  063%=      5-min Rain = 0
KTAS 091927Z 35002KT 03/M03 A3035 RMK A01 T00341030  RH  063%=      5-min Rain = 0
KTAS 091928Z 35002KT 03/M03 A3035 RMK A01 T00341032  RH  062%=      5-min Rain = 0
KTAS 091929Z 34004KT 04/M03 A3035 RMK A01 T00361029  RH  062%=      5-min Rain = 0
KTAS 091930Z 34003KT 04/M03 A3035 RMK A01 T00361028  RH  063%=      5-min Rain = 0
KTAS 091931Z 32003KT 04/M03 A3035 RMK A01 T00361028  RH  063%=      5-min Rain = 0
KTAS 091932Z 33002KT 04/M03 A3035 RMK A01 T00351032  RH  062%=      5-min Rain = 0
KTAS 091933Z 35004KT 04/M03 A3035 RMK A01 T00361032  RH  061%=      5-min Rain = 0
KTAS 091934Z 32004KT 04/M03 A3035 RMK A01 T00361030  RH  062%=      5-min Rain = 0
KTAS 091935Z 32004KT 04/M03 A3035 RMK A01 T00351032  RH  062%=      5-min Rain = 0
KTAS 091936Z 34003KT 03/M03 A3035 RMK A01 T00341033  RH  062%=      5-min Rain = 0
KTAS 091937Z 36003KT 04/M03 A3035 RMK A01 T00361027  RH  063%=      5-min Rain = 0
KTAS 091938Z 30004KT 04/M03 A3035 RMK A01 T00361028  RH  063%=      5-min Rain = 0
KTAS 091939Z 32004KT 04/M03 A3035 RMK A01 T00351032  RH  062%=      5-min Rain = 0
KTAS 091940Z 33003KT 03/M03 A3035 RMK A01 T00341032  RH  062%=      5-min Rain = 0
KTAS 091941Z 32003KT 03/M03 A3035 RMK A01 T00341031  RH  062%=      5-min Rain = 0
KTAS 091942Z 31004KT 04/M03 A3035 RMK A01 T00361027  RH  063%=      5-min Rain = 0
KTAS 091943Z 31004KT 04/M03 A3035 RMK A01 T00361030  RH  062%=      5-min Rain = 0
KTAS 091944Z 31005KT 04/M03 A3035 RMK A01 T00351031  RH  062%=      5-min Rain = 0
KTAS 091945Z 33004KT 04/M03 A3035 RMK A01 T00351034  RH  061%=      5-min Rain = 0
KTAS 091946Z 32003KT 03/M03 A3035 RMK A01 T00341032  RH  062%=      5-min Rain = 0
KTAS 091947Z 32005KT 04/M03 A3035 RMK A01 T00361028  RH  063%=      5-min Rain = 0
KTAS 091948Z 33004KT 04/M03 A3035 RMK A01 T00361029  RH  062%=      5-min Rain = 0
KTAS 091949Z 34004KT 04/M03 A3034 RMK A01 T00361030  RH  062%=      5-min Rain = 0
KTAS 091950Z 32004KT 04/M03 A3034 RMK A01 T00371028  RH  063%=      5-min Rain = 0
KTAS 091951Z 30003KT 04/M03 A3034 RMK A01 T00371028  RH  063%=      5-min Rain = 0
KTAS 091952Z 31004KT 04/M03 A3034 RMK A01 T00381025  RH  063%=      5-min Rain = 0
KTAS 091953Z 31004KT 04/M03 A3034 RMK A01 T00371028  RH  063%=      5-min Rain = 0
KTAS 091954Z 32005KT 04/M03 A3034 RMK A01 T00351029  RH  063%=      5-min Rain = 0
KTAS 091955Z 32004KT 04/M03 A3034 RMK A01 T00361028  RH  063%=      5-min Rain = 0
KTAS 091956Z 32005KT 04/M03 A3034 RMK A01 T00371027  RH  063%=      5-min Rain = 0
KTAS 091957Z 33005KT 04/M03 A3034 RMK A01 T00361031  RH  062%=      5-min Rain = 0
KTAS 091958Z 34006KT 04/M03 A3034 RMK A01 T00371029  RH  062%=      5-min Rain = 0
KTAS 091959Z 34004KT 04/M03 A3034 RMK A01 T00361030  RH  062%=      5-min Rain = 0
KTAS 092000Z 33006KT 04/M03 A3034 RMK A01 T00371027  RH  063%=      5-min Rain = 0
KTAS 092001Z 33006KT 04/M03 A3034 RMK A01 T00371026  RH  063%=      5-min Rain = 0
KTAS 092002Z 33006KT 04/M03 A3034 RMK A01 T00361029  RH  063%=      5-min Rain = 0
KTAS 092003Z 32005KT 04/M03 A3034 RMK A01 T00371026  RH  063%=      5-min Rain = 0
KTAS 092004Z 33005KT 04/M03 A3034 RMK A01 T00361029  RH  062%=      5-min Rain = 0
KTAS 092005Z 33006KT 04/M03 A3034 RMK A01 T00351031  RH  062%=      5-min Rain = 0
KTAS 092006Z 32006KT 04/M03 A3034 RMK A01 T00361030  RH  062%=      5-min Rain = 0
KTAS 092007Z 32004KT 04/M03 A3034 RMK A01 T00371026  RH  063%=      5-min Rain = 0
KTAS 092008Z 33006KT 04/M03 A3034 RMK A01 T00361029  RH  063%=      5-min Rain = 0
KTAS 092009Z 35006KT 04/M03 A3034 RMK A01 T00381025  RH  063%=      5-min Rain = 0
KTAS 092010Z 33006KT 04/M03 A3034 RMK A01 T00381025  RH  063%=      5-min Rain = 0
KTAS 092011Z 33006KT 04/M03 A3034 RMK A01 T00381026  RH  063%=      5-min Rain = 0
KTAS 092012Z 33005KT 04/M03 A3034 RMK A01 T00361030  RH  062%=      5-min Rain = 0
KTAS 092013Z 33005KT 04/M03 A3034 RMK A01 T00381025  RH  063%=      5-min Rain = 0
KTAS 092014Z 33006KT 04/M03 A3034 RMK A01 T00391026  RH  063%=      5-min Rain = 0
KTAS 092015Z 33006KT 04/M03 A3034 RMK A01 T00371029  RH  062%=      5-min Rain = 0
KTAS 092016Z 33005KT 04/M03 A3034 RMK A01 T00361031  RH  062%=      5-min Rain = 0
KTAS 092017Z 33005KT 04/M03 A3034 RMK A01 T00361028  RH  063%=      5-min Rain = 0
KTAS 092018Z 32005KT 04/M03 A3034 RMK A01 T00361028  RH  063%=      5-min Rain = 0
KTAS 092019Z 33005KT 04/M02 A3034 RMK A01 T00381022  RH  065%=      5-min Rain = 0
KTAS 092020Z 32005KT 04/M02 A3033 RMK A01 T00401022  RH  064%=      5-min Rain = 0
KTAS 092021Z 34005KT 04/M03 A3033 RMK A01 T00371029  RH  062%=      5-min Rain = 0
KTAS 092022Z 35005KT 04/M03 A3033 RMK A01 T00361028  RH  063%=      5-min Rain = 0
KTAS 092023Z 35006KT 04/M03 A3033 RMK A01 T00381025  RH  064%=      5-min Rain = 0
KTAS 092024Z 34005KT 04/M03 A3033 RMK A01 T00381026  RH  063%=      5-min Rain = 0
KTAS 092025Z 33004KT 04/M03 A3033 RMK A01 T00381025  RH  063%=      5-min Rain = 0
KTAS 092026Z 34006KT 04/M03 A3033 RMK A01 T00391026  RH  063%=      5-min Rain = 0
KTAS 092027Z 34006KT 04/M03 A3033 RMK A01 T00371029  RH  062%=      5-min Rain = 0
KTAS 092028Z 33006KT 04/M03 A3033 RMK A01 T00361031  RH  061%=      5-min Rain = 0
KTAS 092029Z 36006KT 04/M03 A3033 RMK A01 T00371030  RH  062%=      5-min Rain = 0
KTAS 092030Z 34005KT 04/M03 A3034 RMK A01 T00381027  RH  062%=      5-min Rain = 0
KTAS 092031Z 33006KT 04/M03 A3034 RMK A01 T00391026  RH  062%=      5-min Rain = 0
KTAS 092032Z 34006KT 04/M03 A3034 RMK A01 T00391025  RH  063%=      5-min Rain = 0
KTAS 092033Z 34007KT 04/M03 A3034 RMK A01 T00391026  RH  063%=      5-min Rain = 0
KTAS 092034Z 34006KT 04/M03 A3034 RMK A01 T00401027  RH  062%=      5-min Rain = 0
KTAS 092035Z 34005KT 04/M03 A3034 RMK A01 T00381031  RH  061%=      5-min Rain = 0
KTAS 092036Z 36006KT 04/M03 A3034 RMK A01 T00391025  RH  063%=      5-min Rain = 0
KTAS 092037Z 34006KT 04/M02 A3034 RMK A01 T00411022  RH  063%=      5-min Rain = 0
KTAS 092038Z 33007KT 04/M03 A3034 RMK A01 T00401025  RH  063%=      5-min Rain = 0
KTAS 092039Z 34005KT 04/M03 A3034 RMK A01 T00381028  RH  062%=      5-min Rain = 0
KTAS 092040Z 34006KT 04/M03 A3034 RMK A01 T00371026  RH  063%=      5-min Rain = 0
KTAS 092041Z 32006KT 04/M02 A3034 RMK A01 T00381024  RH  064%=      5-min Rain = 0
KTAS 092042Z 32005KT 04/M03 A3034 RMK A01 T00381026  RH  063%=      5-min Rain = 0
KTAS 092043Z 32006KT 04/M03 A3034 RMK A01 T00381027  RH  062%=      5-min Rain = 0
KTAS 092044Z 32006KT 04/M03 A3034 RMK A01 T00381025  RH  063%=      5-min Rain = 0
KTAS 092045Z 32006KT 04/M03 A3034 RMK A01 T00371027  RH  063%=      5-min Rain = 0
KTAS 092046Z 32006KT 04/M03 A3034 RMK A01 T00381025  RH  063%=      5-min Rain = 0
KTAS 092047Z 33006KT 04/M03 A3034 RMK A01 T00381027  RH  063%=      5-min Rain = 0
KTAS 092048Z 31006KT 04/M03 A3034 RMK A01 T00381027  RH  062%=      5-min Rain = 0
KTAS 092049Z 32006KT 04/M03 A3034 RMK A01 T00381025  RH  063%=      5-min Rain = 0
KTAS 092050Z 32005KT 04/M03 A3034 RMK A01 T00371025  RH  064%=      5-min Rain = 0
KTAS 092051Z 32005KT 04/M02 A3034 RMK A01 T00371024  RH  064%=      5-min Rain = 0
KTAS 092052Z 33004KT 04/M02 A3034 RMK A01 T00391022  RH  064%=      5-min Rain = 0
KTAS 092053Z 33005KT 04/M02 A3034 RMK A01 T00411019  RH  065%=      5-min Rain = 0
KTAS 092054Z 34006KT 04/M02 A3034 RMK A01 T00401024  RH  063%=      5-min Rain = 0
KTAS 092055Z 34005KT 04/M03 A3034 RMK A01 T00401025  RH  063%=      5-min Rain = 0
KTAS 092056Z 33006KT 04/M03 A3034 RMK A01 T00401025  RH  063%=      5-min Rain = 0
KTAS 092057Z 33006KT 04/M03 A3034 RMK A01 T00381026  RH  063%=      5-min Rain = 0
KTAS 092058Z 35007KT 04/M03 A3034 RMK A01 T00371026  RH  064%=      5-min Rain = 0
KTAS 092059Z 34006KT 04/M03 A3034 RMK A01 T00371028  RH  063%=      5-min Rain = 0
KTAS 092100Z 33006KT 04/M03 A3033 RMK A01 T00381026  RH  063%=      5-min Rain = 0
KTAS 092101Z 33006KT 04/M03 A3033 RMK A01 T00391025  RH  063%=      5-min Rain = 0
KTAS 092102Z 33005KT 04/M03 A3033 RMK A01 T00391027  RH  062%=      5-min Rain = 0
KTAS 092103Z 33004KT 04/M02 A3033 RMK A01 T00411023  RH  063%=      5-min Rain = 0
KTAS 092104Z 33005KT 04/M02 A3033 RMK A01 T00421022  RH  063%=      5-min Rain = 0
KTAS 092105Z 34006KT 04/M02 A3033 RMK A01 T00421022  RH  063%=      5-min Rain = 0
KTAS 092106Z 34006KT 04/M03 A3033 RMK A01 T00411027  RH  061%=      5-min Rain = 0
KTAS 092107Z 35005KT 04/M03 A3033 RMK A01 T00411027  RH  061%=      5-min Rain = 0
KTAS 092108Z 33006KT 04/M03 A3033 RMK A01 T00401030  RH  060%=      5-min Rain = 0
KTAS 092109Z 34005KT 04/M03 A3033 RMK A01 T00411028  RH  061%=      5-min Rain = 0
KTAS 092110Z 32006KT 04/M03 A3033 RMK A01 T00421028  RH  061%=      5-min Rain = 0
KTAS 092111Z 32006KT 04/M03 A3033 RMK A01 T00421028  RH  061%=      5-min Rain = 0
KTAS 092112Z 33005KT 04/M03 A3033 RMK A01 T00421028  RH  060%=      5-min Rain = 0
KTAS 092113Z 34006KT 04/M03 A3033 RMK A01 T00401034  RH  058%=      5-min Rain = 0
KTAS 092114Z 34006KT 04/M03 A3033 RMK A01 T00401034  RH  058%=      5-min Rain = 0
KTAS 092115Z 34006KT 04/M03 A3033 RMK A01 T00401031  RH  060%=      5-min Rain = 0
KTAS 092116Z 34006KT 04/M03 A3033 RMK A01 T00391033  RH  059%=      5-min Rain = 0
KTAS 092117Z 34006KT 04/M03 A3033 RMK A01 T00391032  RH  060%=      5-min Rain = 0
KTAS 092118Z 34005KT 04/M03 A3033 RMK A01 T00391030  RH  061%=      5-min Rain = 0
KTAS 092119Z 34006KT 04/M03 A3034 RMK A01 T00391029  RH  061%=      5-min Rain = 0
KTAS 092120Z 33004KT 04/M03 A3034 RMK A01 T00391027  RH  062%=      5-min Rain = 0
KTAS 092121Z 35006KT 04/M03 A3034 RMK A01 T00401026  RH  062%=      5-min Rain = 0
KTAS 092122Z 34005KT 04/M03 A3034 RMK A01 T00401029  RH  061%=      5-min Rain = 0
KTAS 092123Z 34006KT 04/M03 A3034 RMK A01 T00421026  RH  062%=      5-min Rain = 0
KTAS 092124Z 34006KT 04/M03 A3034 RMK A01 T00411029  RH  060%=      5-min Rain = 0
KTAS 092125Z 35006KT 04/M03 A3034 RMK A01 T00401031  RH  060%=      5-min Rain = 0
KTAS 092126Z 34004KT 04/M03 A3034 RMK A01 T00401028  RH  061%=      5-min Rain = 0
KTAS 092127Z 34006KT 04/M02 A3034 RMK A01 T00421024  RH  062%=      5-min Rain = 0
KTAS 092128Z 35005KT 04/M02 A3034 RMK A01 T00431024  RH  062%=      5-min Rain = 0
KTAS 092129Z 00006KT 05/M02 A3034 RMK A01 T00461021  RH  062%=      5-min Rain = 0
KTAS 092130Z 36005KT 04/M03 A3033 RMK A01 T00441028  RH  060%=      5-min Rain = 0
KTAS 092131Z 34006KT 04/M03 A3033 RMK A01 T00431026  RH  061%=      5-min Rain = 0
KTAS 092132Z 34007KT 04/M03 A3033 RMK A01 T00421028  RH  060%=      5-min Rain = 0
KTAS 092133Z 33006KT 04/M03 A3033 RMK A01 T00421028  RH  060%=      5-min Rain = 0
KTAS 092134Z 33005KT 04/M03 A3034 RMK A01 T00421028  RH  061%=      5-min Rain = 0
KTAS 092135Z 34006KT 04/M03 A3034 RMK A01 T00421026  RH  061%=      5-min Rain = 0
KTAS 092136Z 33006KT 04/M03 A3034 RMK A01 T00421025  RH  062%=      5-min Rain = 0
KTAS 092137Z 34006KT 04/M03 A3034 RMK A01 T00401033  RH  059%=      5-min Rain = 0
KTAS 092138Z 34006KT 04/M03 A3034 RMK A01 T00391031  RH  060%=      5-min Rain = 0
KTAS 092139Z 35006KT 04/M03 A3034 RMK A01 T00401032  RH  060%=      5-min Rain = 0
KTAS 092140Z 33006KT 04/M03 A3034 RMK A01 T00411028  RH  061%=      5-min Rain = 0
KTAS 092141Z 33006KT 04/M03 A3033 RMK A01 T00421028  RH  061%=      5-min Rain = 0
KTAS 092142Z 34005KT 04/M03 A3034 RMK A01 T00421027  RH  061%=      5-min Rain = 0
KTAS 092143Z 34005KT 04/M02 A3034 RMK A01 T00431024  RH  062%=      5-min Rain = 0
KTAS 092144Z 35005KT 04/M03 A3034 RMK A01 T00421029  RH  060%=      5-min Rain = 0
KTAS 092145Z 34005KT 04/M03 A3034 RMK A01 T00401029  RH  060%=      5-min Rain = 0
KTAS 092146Z 34005KT 04/M02 A3034 RMK A01 T00411024  RH  063%=      5-min Rain = 0
KTAS 092147Z 34005KT 04/M03 A3034 RMK A01 T00411025  RH  062%=      5-min Rain = 0
KTAS 092148Z 35005KT 04/M03 A3034 RMK A01 T00421025  RH  062%=      5-min Rain = 0
KTAS 092149Z 33006KT 04/M03 A3033 RMK A01 T00421028  RH  060%=      5-min Rain = 0
KTAS 092150Z 34006KT 04/M03 A3033 RMK A01 T00421030  RH  060%=      5-min Rain = 0
KTAS 092151Z 35005KT 04/M03 A3033 RMK A01 T00421031  RH  059%=      5-min Rain = 0
KTAS 092152Z 34005KT 04/M03 A3033 RMK A01 T00421031  RH  059%=      5-min Rain = 0
KTAS 092153Z 35005KT 04/M03 A3033 RMK A01 T00411032  RH  059%=      5-min Rain = 0
KTAS 092154Z 34005KT 04/M03 A3033 RMK A01 T00411029  RH  060%=      5-min Rain = 0
KTAS 092155Z 34005KT 04/M03 A3033 RMK A01 T00411027  RH  061%=      5-min Rain = 0
KTAS 092156Z 35006KT 04/M03 A3033 RMK A01 T00421027  RH  061%=      5-min Rain = 0
KTAS 092157Z 34005KT 04/M03 A3033 RMK A01 T00421028  RH  061%=      5-min Rain = 0
KTAS 092158Z 34006KT 04/M03 A3033 RMK A01 T00431028  RH  060%=      5-min Rain = 0
KTAS 092159Z 35006KT 04/M03 A3033 RMK A01 T00431031  RH  059%=      5-min Rain = 0
KTAS 092200Z 35005KT 04/M03 A3033 RMK A01 T00421030  RH  059%=      5-min Rain = 0
KTAS 092201Z 35005KT 04/M03 A3033 RMK A01 T00421027  RH  061%=      5-min Rain = 0
KTAS 092202Z 34006KT 04/M03 A3033 RMK A01 T00431026  RH  061%=      5-min Rain = 0
KTAS 092203Z 35005KT 04/M03 A3033 RMK A01 T00421032  RH  059%=      5-min Rain = 0
KTAS 092204Z 35006KT 04/M03 A3033 RMK A01 T00411033  RH  058%=      5-min Rain = 0
KTAS 092205Z 35005KT 04/M03 A3033 RMK A01 T00411034  RH  058%=      5-min Rain = 0
KTAS 092206Z 35006KT 04/M03 A3033 RMK A01 T00421033  RH  058%=      5-min Rain = 0
KTAS 092207Z 35006KT 04/M03 A3033 RMK A01 T00421030  RH  059%=      5-min Rain = 0
KTAS 092208Z 35006KT 04/M03 A3033 RMK A01 T00411029  RH  060%=      5-min Rain = 0
KTAS 092209Z 35005KT 04/M03 A3033 RMK A01 T00401032  RH  060%=      5-min Rain = 0
KTAS 092210Z 35006KT 04/M03 A3033 RMK A01 T00401030  RH  060%=      5-min Rain = 0
KTAS 092211Z 35005KT 04/M03 A3033 RMK A01 T00391032  RH  060%=      5-min Rain = 0
KTAS 092212Z 34005KT 04/M03 A3033 RMK A01 T00401029  RH  061%=      5-min Rain = 0
KTAS 092213Z 34005KT 04/M03 A3033 RMK A01 T00411030  RH  060%=      5-min Rain = 0
KTAS 092214Z 34006KT 04/M03 A3033 RMK A01 T00401030  RH  060%=      5-min Rain = 0
KTAS 092215Z 34005KT 04/M03 A3033 RMK A01 T00401029  RH  061%=      5-min Rain = 0
KTAS 092216Z 35004KT 04/M03 A3033 RMK A01 T00401031  RH  060%=      5-min Rain = 0
KTAS 092217Z 00005KT 04/M03 A3033 RMK A01 T00401030  RH  060%=      5-min Rain = 0
KTAS 092218Z 00005KT 04/M03 A3033 RMK A01 T00401030  RH  060%=      5-min Rain = 0
KTAS 092219Z 36005KT 04/M03 A3033 RMK A01 T00401030  RH  060%=      5-min Rain = 0
KTAS 092220Z 36005KT 04/M03 A3033 RMK A01 T00401030  RH  061%=      5-min Rain = 0
KTAS 092221Z 35005KT 04/M03 A3033 RMK A01 T00401030  RH  060%=      5-min Rain = 0
KTAS 092222Z 35005KT 04/M03 A3034 RMK A01 T00411028  RH  061%=      5-min Rain = 0
KTAS 092223Z 34006KT 04/M03 A3034 RMK A01 T00401030  RH  060%=      5-min Rain = 0
KTAS 092224Z 34005KT 04/M03 A3034 RMK A01 T00391030  RH  060%=      5-min Rain = 0
KTAS 092225Z 34005KT 04/M03 A3034 RMK A01 T00411028  RH  061%=      5-min Rain = 0
KTAS 092226Z 34006KT 04/M03 A3034 RMK A01 T00421027  RH  061%=      5-min Rain = 0
KTAS 092227Z 34007KT 04/M03 A3034 RMK A01 T00411030  RH  060%=      5-min Rain = 0
KTAS 092228Z 34006KT 04/M03 A3034 RMK A01 T00401030  RH  061%=      5-min Rain = 0
KTAS 092229Z 34006KT 04/M03 A3034 RMK A01 T00401029  RH  061%=      5-min Rain = 0
KTAS 092230Z 35006KT 04/M03 A3034 RMK A01 T00401028  RH  061%=      5-min Rain = 0
KTAS 092231Z 34005KT 04/M03 A3034 RMK A01 T00401028  RH  061%=      5-min Rain = 0
KTAS 092232Z 35004KT 04/M03 A3034 RMK A01 T00401027  RH  062%=      5-min Rain = 0
KTAS 092233Z 35006KT 04/M03 A3034 RMK A01 T00411026  RH  062%=      5-min Rain = 0
KTAS 092234Z 35006KT 04/M03 A3034 RMK A01 T00391029  RH  061%=      5-min Rain = 0
KTAS 092235Z 36006KT 04/M03 A3034 RMK A01 T00391027  RH  062%=      5-min Rain = 0
KTAS 092236Z 00005KT 04/M03 A3034 RMK A01 T00391028  RH  062%=      5-min Rain = 0
KTAS 092237Z 35007KT 04/M03 A3034 RMK A01 T00381028  RH  062%=      5-min Rain = 0
KTAS 092238Z 35006KT 04/M03 A3034 RMK A01 T00381029  RH  062%=      5-min Rain = 0
KTAS 092239Z 36005KT 04/M03 A3034 RMK A01 T00381027  RH  062%=      5-min Rain = 0
KTAS 092240Z 35005KT 04/M03 A3034 RMK A01 T00391025  RH  063%=      5-min Rain = 0
KTAS 092241Z 35005KT 04/M02 A3034 RMK A01 T00401024  RH  063%=      5-min Rain = 0
KTAS 092242Z 36007KT 04/M02 A3034 RMK A01 T00401024  RH  063%=      5-min Rain = 0
KTAS 092243Z 35007KT 04/M03 A3034 RMK A01 T00391027  RH  062%=      5-min Rain = 0
KTAS 092244Z 36006KT 04/M03 A3034 RMK A01 T00371029  RH  062%=      5-min Rain = 0
KTAS 092245Z 35006KT 04/M03 A3034 RMK A01 T00381026  RH  063%=      5-min Rain = 0
KTAS 092246Z 36007KT 04/M03 A3034 RMK A01 T00371027  RH  063%=      5-min Rain = 0
KTAS 092247Z 36006KT 04/M03 A3034 RMK A01 T00371027  RH  063%=      5-min Rain = 0
KTAS 092248Z 36005KT 04/M03 A3034 RMK A01 T00371025  RH  064%=      5-min Rain = 0
KTAS 092249Z 35005KT 04/M02 A3034 RMK A01 T00371024  RH  064%=      5-min Rain = 0
KTAS 092250Z 35006KT 04/M03 A3034 RMK A01 T00371026  RH  064%=      5-min Rain = 0
KTAS 092251Z 35007KT 04/M03 A3034 RMK A01 T00361027  RH  063%=      5-min Rain = 0
KTAS 092252Z 35006KT 04/M03 A3034 RMK A01 T00361027  RH  064%=      5-min Rain = 0
KTAS 092253Z 35006KT 04/M03 A3034 RMK A01 T00351026  RH  064%=      5-min Rain = 0
KTAS 092254Z 35005KT 04/M03 A3034 RMK A01 T00361025  RH  065%=      5-min Rain = 0
KTAS 092255Z 35006KT 04/M02 A3034 RMK A01 T00361024  RH  065%=      5-min Rain = 0
KTAS 092256Z 35005KT 04/M03 A3034 RMK A01 T00351025  RH  065%=      5-min Rain = 0
KTAS 092257Z 35004KT 04/M02 A3034 RMK A01 T00351024  RH  065%=      5-min Rain = 0
KTAS 092258Z 36005KT 04/M02 A3034 RMK A01 T00351023  RH  066%=      5-min Rain = 0
KTAS 092259Z 36005KT 04/M02 A3034 RMK A01 T00351023  RH  066%=      5-min Rain = 0
KTAS 092300Z 36005KT 03/M02 A3034 RMK A01 T00341024  RH  066%=      5-min Rain = 0
KTAS 092301Z 35005KT 03/M02 A3034 RMK A01 T00341024  RH  066%=      5-min Rain = 0
KTAS 092302Z 35005KT 03/M02 A3034 RMK A01 T00341023  RH  066%=      5-min Rain = 0
KTAS 092303Z 35005KT 03/M02 A3034 RMK A01 T00331024  RH  066%=      5-min Rain = 0
KTAS 092304Z 35004KT 03/M02 A3034 RMK A01 T00331024  RH  066%=      5-min Rain = 0
KTAS 092305Z 35003KT 03/M02 A3034 RMK A01 T00331023  RH  067%=      5-min Rain = 0
KTAS 092306Z 35004KT 03/M02 A3034 RMK A01 T00331023  RH  067%=      5-min Rain = 0
KTAS 092307Z 35004KT 03/M02 A3034 RMK A01 T00331022  RH  067%=      5-min Rain = 0
KTAS 092308Z 35004KT 03/M02 A3034 RMK A01 T00331022  RH  067%=      5-min Rain = 0
KTAS 092309Z 36004KT 03/M02 A3034 RMK A01 T00321022  RH  067%=      5-min Rain = 0
KTAS 092310Z 00004KT 03/M02 A3034 RMK A01 T00321022  RH  068%=      5-min Rain = 0
KTAS 092311Z 00004KT 03/M02 A3034 RMK A01 T00321021  RH  068%=      5-min Rain = 0
KTAS 092312Z 36003KT 03/M02 A3034 RMK A01 T00321021  RH  069%=      5-min Rain = 0
KTAS 092313Z 35004KT 03/M02 A3034 RMK A01 T00311021  RH  069%=      5-min Rain = 0
KTAS 092314Z 00003KT 03/M02 A3034 RMK A01 T00301021  RH  069%=      5-min Rain = 0
KTAS 092315Z 36003KT 03/M02 A3034 RMK A01 T00301020  RH  069%=      5-min Rain = 0
KTAS 092316Z 00003KT 03/M02 A3034 RMK A01 T00301020  RH  070%=      5-min Rain = 0
KTAS 092317Z 00004KT 03/M02 A3034 RMK A01 T00291020  RH  070%=      5-min Rain = 0
KTAS 092318Z 00004KT 03/M02 A3034 RMK A01 T00281020  RH  070%=      5-min Rain = 0
KTAS 092319Z 00004KT 03/M02 A3034 RMK A01 T00281020  RH  071%=      5-min Rain = 0
KTAS 092320Z 01003KT 03/M02 A3034 RMK A01 T00271020  RH  071%=      5-min Rain = 0
KTAS 092321Z 01004KT 03/M02 A3034 RMK A01 T00271020  RH  071%=      5-min Rain = 0
KTAS 092322Z 01003KT 03/M02 A3034 RMK A01 T00261020  RH  071%=      5-min Rain = 0
KTAS 092323Z 01004KT 03/M02 A3034 RMK A01 T00261020  RH  072%=      5-min Rain = 0
KTAS 092324Z 01003KT 03/M02 A3034 RMK A01 T00251020  RH  072%=      5-min Rain = 0
KTAS 092325Z 01004KT 03/M02 A3034 RMK A01 T00251020  RH  072%=      5-min Rain = 0
KTAS 092326Z 01004KT 02/M02 A3034 RMK A01 T00241020  RH  072%=      5-min Rain = 0
KTAS 092327Z 01003KT 02/M02 A3034 RMK A01 T00241020  RH  073%=      5-min Rain = 0
KTAS 092328Z 00004KT 02/M02 A3034 RMK A01 T00231021  RH  073%=      5-min Rain = 0
KTAS 092329Z 00003KT 02/M02 A3034 RMK A01 T00231021  RH  073%=      5-min Rain = 0
KTAS 092330Z 01003KT 02/M02 A3034 RMK A01 T00221021  RH  073%=      5-min Rain = 0
KTAS 092331Z 01003KT 02/M02 A3034 RMK A01 T00211021  RH  074%=      5-min Rain = 0
KTAS 092332Z 01003KT 02/M02 A3034 RMK A01 T00211021  RH  074%=      5-min Rain = 0
KTAS 092333Z 01003KT 02/M02 A3034 RMK A01 T00201021  RH  074%=      5-min Rain = 0
KTAS 092334Z 01002KT 02/M02 A3034 RMK A01 T00201021  RH  074%=      5-min Rain = 0
KTAS 092335Z 02002KT 02/M02 A3034 RMK A01 T00201021  RH  074%=      5-min Rain = 0
KTAS 092336Z 02002KT 02/M02 A3034 RMK A01 T00201021  RH  075%=      5-min Rain = 0
KTAS 092337Z 01002KT 02/M02 A3034 RMK A01 T00201020  RH  075%=      5-min Rain = 0
KTAS 092338Z 02002KT 02/M02 A3034 RMK A01 T00191020  RH  075%=      5-min Rain = 0
KTAS 092339Z 01002KT 02/M02 A3034 RMK A01 T00191020  RH  075%=      5-min Rain = 0
KTAS 092340Z 01002KT 02/M02 A3034 RMK A01 T00191020  RH  076%=      5-min Rain = 0
KTAS 092341Z 01002KT 02/M02 A3034 RMK A01 T00191020  RH  076%=      5-min Rain = 0
KTAS 092342Z 01002KT 02/M02 A3034 RMK A01 T00191019  RH  076%=      5-min Rain = 0
KTAS 092343Z 01002KT 02/M02 A3034 RMK A01 T00191019  RH  076%=      5-min Rain = 0
KTAS 092344Z 01002KT 02/M02 A3034 RMK A01 T00181020  RH  076%=      5-min Rain = 0
KTAS 092345Z 01002KT 02/M02 A3034 RMK A01 T00181019  RH  076%=      5-min Rain = 0
KTAS 092346Z 01002KT 02/M02 A3034 RMK A01 T00181019  RH  076%=      5-min Rain = 0
KTAS 092347Z 01002KT 02/M02 A3034 RMK A01 T00181019  RH  076%=      5-min Rain = 0
KTAS 092348Z 01002KT 02/M02 A3034 RMK A01 T00181019  RH  076%=      5-min Rain = 0
KTAS 092349Z 02002KT 02/M02 A3034 RMK A01 T00181019  RH  076%=      5-min Rain = 0
KTAS 092350Z 02002KT 02/M02 A3034 RMK A01 T00181019  RH  076%=      5-min Rain = 0
KTAS 092351Z 02002KT 02/M02 A3034 RMK A01 T00181019  RH  076%=      5-min Rain = 0
KTAS 092352Z 02002KT 02/M02 A3034 RMK A01 T00171020  RH  076%=      5-min Rain = 0
KTAS 092353Z 02002KT 02/M02 A3035 RMK A01 T00171020  RH  076%=      5-min Rain = 0
KTAS 092354Z 02002KT 02/M02 A3035 RMK A01 T00171020  RH  076%=      5-min Rain = 0
KTAS 092355Z 01002KT 02/M02 A3035 RMK A01 T00161021  RH  076%=      5-min Rain = 0
KTAS 092356Z 01001KT 02/M02 A3035 RMK A01 T00161021  RH  076%=      5-min Rain = 0
KTAS 092357Z 01002KT 02/M02 A3035 RMK A01 T00151021  RH  077%=      5-min Rain = 0
KTAS 092358Z 36002KT 02/M02 A3035 RMK A01 T00151022  RH  077%=      5-min Rain = 0
KTAS 092359Z 35001KT 01/M02 A3035 RMK A01 T00141022  RH  077%=      5-min Rain = 0
KTAS 100000Z 34001KT 01/M02 A3035 RMK A01 T00141022  RH  077%=      5-min Rain = 0
KTAS 100001Z 33001KT 01/M02 A3035 RMK A01 T00131023  RH  077%=      5-min Rain = 0
KTAS 100002Z 33001KT 01/M02 A3035 RMK A01 T00131023  RH  077%=      5-min Rain = 0
KTAS 100003Z 33001KT 01/M02 A3035 RMK A01 T00131022  RH  077%=      5-min Rain = 0
KTAS 100004Z 33001KT 01/M02 A3035 RMK A01 T00131022  RH  078%=      5-min Rain = 0
KTAS 100005Z 32001KT 01/M02 A3035 RMK A01 T00131022  RH  078%=      5-min Rain = 0
KTAS 100006Z 33001KT 01/M02 A3035 RMK A01 T00121022  RH  078%=      5-min Rain = 0
KTAS 100007Z 33001KT 01/M02 A3035 RMK A01 T00121022  RH  078%=      5-min Rain = 0
KTAS 100008Z 32001KT 01/M02 A3035 RMK A01 T00121022  RH  078%=      5-min Rain = 0
KTAS 100009Z 33002KT 01/M02 A3035 RMK A01 T00121022  RH  078%=      5-min Rain = 0
KTAS 100010Z 32001KT 01/M02 A3035 RMK A01 T00121022  RH  078%=      5-min Rain = 0
KTAS 100011Z 31002KT 01/M02 A3035 RMK A01 T00121021  RH  079%=      5-min Rain = 0
KTAS 100012Z 31002KT 01/M02 A3035 RMK A01 T00121021  RH  079%=      5-min Rain = 0
KTAS 100013Z 30001KT 01/M02 A3035 RMK A01 T00121021  RH  079%=      5-min Rain = 0
KTAS 100014Z 29001KT 01/M02 A3035 RMK A01 T00121022  RH  079%=      5-min Rain = 0
KTAS 100015Z 29001KT 01/M02 A3035 RMK A01 T00111022  RH  079%=      5-min Rain = 0
KTAS 100016Z 30001KT 01/M02 A3035 RMK A01 T00101023  RH  079%=      5-min Rain = 0
KTAS 100017Z 29001KT 01/M02 A3035 RMK A01 T00091023  RH  079%=      5-min Rain = 0
KTAS 100018Z 30001KT 01/M02 A3035 RMK A01 T00101022  RH  079%=      5-min Rain = 0
KTAS 100019Z 29000KT 01/M02 A3035 RMK A01 T00101021  RH  080%=      5-min Rain = 0
KTAS 100020Z 29001KT 01/M02 A3035 RMK A01 T00101021  RH  080%=      5-min Rain = 0
KTAS 100021Z 29001KT 01/M02 A3035 RMK A01 T00101020  RH  080%=      5-min Rain = 0
KTAS 100022Z 29001KT 01/M02 A3035 RMK A01 T00101020  RH  080%=      5-min Rain = 0
KTAS 100023Z 29001KT 01/M02 A3035 RMK A01 T00101020  RH  080%=      5-min Rain = 0
KTAS 100024Z 29001KT 01/M02 A3035 RMK A01 T00101020  RH  080%=      5-min Rain = 0
KTAS 100025Z 29001KT 01/M02 A3035 RMK A01 T00101020  RH  080%=      5-min Rain = 0
KTAS 100026Z 29001KT 01/M02 A3035 RMK A01 T00101019  RH  081%=      5-min Rain = 0
KTAS 100027Z 28001KT 01/M02 A3035 RMK A01 T00111019  RH  081%=      5-min Rain = 0
KTAS 100028Z 28001KT 01/M02 A3035 RMK A01 T00111019  RH  081%=      5-min Rain = 0
KTAS 100029Z 28001KT 01/M02 A3035 RMK A01 T00111019  RH  081%=      5-min Rain = 0
KTAS 100030Z 28001KT 01/M02 A3035 RMK A01 T00111019  RH  081%=      5-min Rain = 0
KTAS 100031Z 29001KT 01/M02 A3035 RMK A01 T00111019  RH  081%=      5-min Rain = 0
KTAS 100032Z 29001KT 01/M02 A3035 RMK A01 T00111019  RH  081%=      5-min Rain = 0
KTAS 100033Z 29002KT 01/M02 A3035 RMK A01 T00111019  RH  080%=      5-min Rain = 0
KTAS 100034Z 30002KT 01/M02 A3035 RMK A01 T00111019  RH  080%=      5-min Rain = 0
KTAS 100035Z 29002KT 01/M02 A3035 RMK A01 T00111019  RH  080%=      5-min Rain = 0
KTAS 100036Z 29002KT 01/M02 A3035 RMK A01 T00111019  RH  080%=      5-min Rain = 0
KTAS 100037Z 29002KT 01/M02 A3035 RMK A01 T00121019  RH  080%=      5-min Rain = 0
KTAS 100038Z 29002KT 01/M02 A3035 RMK A01 T00121019  RH  080%=      5-min Rain = 0
KTAS 100039Z 29001KT 01/M02 A3035 RMK A01 T00121019  RH  080%=      5-min Rain = 0
KTAS 100040Z 29001KT 01/M02 A3035 RMK A01 T00121020  RH  080%=      5-min Rain = 0
KTAS 100041Z 29001KT 01/M02 A3035 RMK A01 T00121020  RH  079%=      5-min Rain = 0
KTAS 100042Z 28001KT 01/M02 A3035 RMK A01 T00121020  RH  079%=      5-min Rain = 0
KTAS 100043Z 28001KT 01/M02 A3035 RMK A01 T00111020  RH  079%=      5-min Rain = 0
KTAS 100044Z 28001KT 01/M02 A3035 RMK A01 T00111021  RH  079%=      5-min Rain = 0
KTAS 100045Z 28001KT 01/M02 A3035 RMK A01 T00111021  RH  079%=      5-min Rain = 0
KTAS 100046Z 28001KT 01/M02 A3035 RMK A01 T00111021  RH  079%=      5-min Rain = 0
KTAS 100047Z 28002KT 01/M02 A3035 RMK A01 T00111021  RH  079%=      5-min Rain = 0
KTAS 100048Z 28002KT 01/M02 A3035 RMK A01 T00101021  RH  080%=      5-min Rain = 0
KTAS 100049Z 28001KT 01/M02 A3035 RMK A01 T00101021  RH  080%=      5-min Rain = 0
KTAS 100050Z 28001KT 01/M02 A3035 RMK A01 T00101021  RH  080%=      5-min Rain = 0
KTAS 100051Z 28001KT 01/M02 A3035 RMK A01 T00101021  RH  080%=      5-min Rain = 0
KTAS 100052Z 28001KT 01/M02 A3034 RMK A01 T00101021  RH  080%=      5-min Rain = 0
KTAS 100053Z 28001KT 01/M02 A3034 RMK A01 T00101021  RH  080%=      5-min Rain = 0
KTAS 100054Z 28001KT 01/M02 A3034 RMK A01 T00101021  RH  080%=      5-min Rain = 0
KTAS 100055Z 27001KT 01/M02 A3034 RMK A01 T00101021  RH  080%=      5-min Rain = 0
KTAS 100056Z 26002KT 01/M02 A3034 RMK A01 T00101021  RH  080%=      5-min Rain = 0
KTAS 100057Z 26002KT 01/M02 A3034 RMK A01 T00101021  RH  080%=      5-min Rain = 0
KTAS 100058Z 26003KT 01/M02 A3034 RMK A01 T00101021  RH  080%=      5-min Rain = 0
KTAS 100059Z 26002KT 01/M02 A3034 RMK A01 T00101021  RH  080%=      5-min Rain = 0
KTAS 100100Z 26002KT 01/M02 A3034 RMK A01 T00101021  RH  080%=      5-min Rain = 0
KTAS 100101Z 26002KT 01/M02 A3034 RMK A01 T00101021  RH  080%=      5-min Rain = 0
KTAS 100102Z 26002KT 01/M02 A3034 RMK A01 T00091021  RH  080%=      5-min Rain = 0
KTAS 100103Z 26002KT 01/M02 A3034 RMK A01 T00081022  RH  080%=      5-min Rain = 0
KTAS 100104Z 25002KT 01/M02 A3034 RMK A01 T00081022  RH  080%=      5-min Rain = 0
KTAS 100105Z 25002KT 01/M02 A3034 RMK A01 T00081022  RH  081%=      5-min Rain = 0
KTAS 100106Z 25002KT 01/M02 A3034 RMK A01 T00081021  RH  081%=      5-min Rain = 0
KTAS 100107Z 25002KT 01/M02 A3034 RMK A01 T00081021  RH  081%=      5-min Rain = 0
KTAS 100108Z 25002KT 01/M02 A3034 RMK A01 T00071022  RH  081%=      5-min Rain = 0
KTAS 100109Z 25002KT 01/M02 A3034 RMK A01 T00071021  RH  082%=      5-min Rain = 0
KTAS 100110Z 25002KT 01/M02 A3034 RMK A01 T00071021  RH  082%=      5-min Rain = 0
KTAS 100111Z 25002KT 01/M02 A3034 RMK A01 T00071022  RH  082%=      5-min Rain = 0
KTAS 100112Z 26002KT 01/M02 A3034 RMK A01 T00071022  RH  081%=      5-min Rain = 0
KTAS 100113Z 26002KT 01/M02 A3034 RMK A01 T00071021  RH  081%=      5-min Rain = 0
KTAS 100114Z 26002KT 01/M02 A3034 RMK A01 T00071022  RH  081%=      5-min Rain = 0
KTAS 100115Z 26002KT 01/M02 A3034 RMK A01 T00071022  RH  081%=      5-min Rain = 0
KTAS 100116Z 26002KT 01/M02 A3034 RMK A01 T00071022  RH  081%=      5-min Rain = 0
KTAS 100117Z 26002KT 01/M02 A3034 RMK A01 T00071023  RH  081%=      5-min Rain = 0
KTAS 100118Z 26002KT 01/M02 A3034 RMK A01 T00071023  RH  081%=      5-min Rain = 0
KTAS 100119Z 26002KT 01/M02 A3034 RMK A01 T00061023  RH  081%=      5-min Rain = 0
KTAS 100120Z 26002KT 01/M02 A3034 RMK A01 T00061023  RH  081%=      5-min Rain = 0
KTAS 100121Z 26002KT 01/M02 A3035 RMK A01 T00061023  RH  081%=      5-min Rain = 0
KTAS 100122Z 27002KT 01/M02 A3035 RMK A01 T00061023  RH  081%=      5-min Rain = 0
KTAS 100123Z 26002KT 01/M02 A3035 RMK A01 T00071023  RH  081%=      5-min Rain = 0
KTAS 100124Z 26002KT 01/M02 A3035 RMK A01 T00061024  RH  080%=      5-min Rain = 0
KTAS 100125Z 25002KT 01/M02 A3035 RMK A01 T00061024  RH  080%=      5-min Rain = 0
KTAS 100126Z 25002KT 01/M03 A3035 RMK A01 T00051025  RH  080%=      5-min Rain = 0
KTAS 100127Z 24002KT 00/M03 A3035 RMK A01 T00041026  RH  080%=      5-min Rain = 0
KTAS 100128Z 25002KT 00/M03 A3035 RMK A01 T00031027  RH  080%=      5-min Rain = 0
KTAS 100129Z 25002KT 00/M03 A3035 RMK A01 T00021027  RH  081%=      5-min Rain = 0
KTAS 100130Z 25002KT 00/M03 A3035 RMK A01 T00011027  RH  081%=      5-min Rain = 0
KTAS 100131Z 25003KT 00/03 A3035 RMK A01 T00000-28  RH  081%=      5-min Rain = 0
KTAS 100132Z 26002KT 00/03 A3035 RMK A01 T00-00-28  RH  082%=      5-min Rain = 0
KTAS 100133Z 26003KT 00/03 A3035 RMK A01 T00000-27  RH  082%=      5-min Rain = 0
KTAS 100134Z 25003KT 00/M03 A3035 RMK A01 T00011025  RH  083%=      5-min Rain = 0
KTAS 100135Z 25003KT 00/M03 A3035 RMK A01 T00011025  RH  083%=      5-min Rain = 0
KTAS 100136Z 25002KT 00/M03 A3035 RMK A01 T00011025  RH  083%=      5-min Rain = 0
KTAS 100137Z 25003KT 00/03 A3035 RMK A01 T00000-25  RH  083%=      5-min Rain = 0
KTAS 100138Z 24003KT 00/03 A3035 RMK A01 T00000-25  RH  083%=      5-min Rain = 0
KTAS 100139Z 25003KT 00/M02 A3035 RMK A01 T00011024  RH  084%=      5-min Rain = 0
KTAS 100140Z 25003KT 00/M02 A3035 RMK A01 T00011023  RH  084%=      5-min Rain = 0
KTAS 100141Z 25002KT 00/M02 A3035 RMK A01 T00011023  RH  084%=      5-min Rain = 0
KTAS 100142Z 25002KT 00/M02 A3036 RMK A01 T00011023  RH  084%=      5-min Rain = 0
KTAS 100143Z 25003KT 00/M02 A3036 RMK A01 T00011023  RH  084%=      5-min Rain = 0
KTAS 100144Z 25003KT 00/M02 A3036 RMK A01 T00011023  RH  084%=      5-min Rain = 0
KTAS 100145Z 25003KT M00/M02 A3036 RMK A01 T10011024  RH  084%=      5-min Rain = 0
KTAS 100146Z 25003KT M00/M03 A3036 RMK A01 T10021025  RH  084%=      5-min Rain = 0
KTAS 100147Z 26003KT M00/M03 A3036 RMK A01 T10021026  RH  084%=      5-min Rain = 0
KTAS 100148Z 26003KT M00/M03 A3036 RMK A01 T10021025  RH  085%=      5-min Rain = 0
KTAS 100149Z 26003KT M00/M03 A3036 RMK A01 T10021025  RH  085%=      5-min Rain = 0
KTAS 100150Z 27003KT M00/M03 A3036 RMK A01 T10021025  RH  085%=      5-min Rain = 0
KTAS 100151Z 28003KT M00/M03 A3036 RMK A01 T10021025  RH  085%=      5-min Rain = 0
KTAS 100152Z 29003KT M00/M03 A3036 RMK A01 T10031025  RH  085%=      5-min Rain = 0
KTAS 100153Z 30003KT M00/M03 A3036 RMK A01 T10031026  RH  085%=      5-min Rain = 0
KTAS 100154Z 31003KT M00/M03 A3036 RMK A01 T10041026  RH  085%=      5-min Rain = 0
KTAS 100155Z 31003KT M00/M03 A3036 RMK A01 T10041026  RH  085%=      5-min Rain = 0
KTAS 100156Z 31003KT M00/M03 A3036 RMK A01 T10041026  RH  085%=      5-min Rain = 0
KTAS 100157Z 31003KT M01/M03 A3036 RMK A01 T10051027  RH  085%=      5-min Rain = 0
KTAS 100158Z 31003KT M01/M03 A3036 RMK A01 T10051026  RH  086%=      5-min Rain = 0
KTAS 100159Z 31003KT M01/M03 A3036 RMK A01 T10051026  RH  086%=      5-min Rain = 0
KTAS 100200Z 31003KT M01/M03 A3036 RMK A01 T10051026  RH  086%=      5-min Rain = 0
KTAS 100201Z 30003KT M01/M03 A3036 RMK A01 T10051026  RH  086%=      5-min Rain = 0
KTAS 100202Z 30003KT M00/M03 A3036 RMK A01 T10041025  RH  086%=      5-min Rain = 0
KTAS 100203Z 30003KT M00/M02 A3036 RMK A01 T10031024  RH  086%=      5-min Rain = 0
KTAS 100204Z 30003KT M00/M02 A3037 RMK A01 T10031023  RH  086%=      5-min Rain = 0
KTAS 100205Z 30003KT M00/M02 A3036 RMK A01 T10031024  RH  086%=      5-min Rain = 0
KTAS 100206Z 30003KT M01/M03 A3037 RMK A01 T10051025  RH  086%=      5-min Rain = 0
KTAS 100207Z 30003KT M01/M03 A3037 RMK A01 T10061027  RH  086%=      5-min Rain = 0
KTAS 100208Z 30004KT M01/M03 A3037 RMK A01 T10071028  RH  086%=      5-min Rain = 0
KTAS 100209Z 30004KT M01/M03 A3037 RMK A01 T10081029  RH  086%=      5-min Rain = 0
KTAS 100210Z 31003KT M01/M03 A3037 RMK A01 T10091030  RH  086%=      5-min Rain = 0
KTAS 100211Z 31003KT M01/M03 A3037 RMK A01 T10091030  RH  086%=      5-min Rain = 0
KTAS 100212Z 31003KT M01/M03 A3037 RMK A01 T10101031  RH  085%=      5-min Rain = 0
KTAS 100213Z 30003KT M01/M03 A3037 RMK A01 T10101032  RH  085%=      5-min Rain = 0
KTAS 100214Z 30003KT M01/M03 A3037 RMK A01 T10111032  RH  085%=      5-min Rain = 0
KTAS 100215Z 30003KT M01/M03 A3037 RMK A01 T10111032  RH  085%=      5-min Rain = 0
KTAS 100216Z 30004KT M01/M03 A3037 RMK A01 T10111032  RH  085%=      5-min Rain = 0
KTAS 100217Z 30004KT M01/M03 A3037 RMK A01 T10111032  RH  085%=      5-min Rain = 0
KTAS 100218Z 30004KT M01/M03 A3037 RMK A01 T10111032  RH  085%=      5-min Rain = 0
KTAS 100219Z 30004KT M01/M03 A3037 RMK A01 T10111032  RH  086%=      5-min Rain = 0
KTAS 100220Z 30004KT M01/M03 A3037 RMK A01 T10111032  RH  086%=      5-min Rain = 0
KTAS 100221Z 30004KT M01/M03 A3037 RMK A01 T10111032  RH  086%=      5-min Rain = 0
KTAS 100222Z 30004KT M01/M03 A3037 RMK A01 T10111032  RH  086%=      5-min Rain = 0
KTAS 100223Z 30004KT M01/M03 A3037 RMK A01 T10111032  RH  086%=      5-min Rain = 0
KTAS 100224Z 29004KT M01/M03 A3037 RMK A01 T10111032  RH  086%=      5-min Rain = 0
KTAS 100225Z 29004KT M01/M03 A3037 RMK A01 T10111032  RH  086%=      5-min Rain = 0
KTAS 100226Z 29004KT M01/M03 A3037 RMK A01 T10121032  RH  086%=      5-min Rain = 0
KTAS 100227Z 29004KT M01/M03 A3037 RMK A01 T10121032  RH  086%=      5-min Rain = 0
KTAS 100228Z 29004KT M01/M03 A3037 RMK A01 T10121032  RH  086%=      5-min Rain = 0
KTAS 100229Z 29004KT M01/M03 A3037 RMK A01 T10121032  RH  086%=      5-min Rain = 0
KTAS 100230Z 29003KT M01/M03 A3037 RMK A01 T10121032  RH  086%=      5-min Rain = 0
KTAS 100231Z 29003KT M01/M03 A3037 RMK A01 T10121032  RH  086%=      5-min Rain = 0
KTAS 100232Z 29003KT M01/M03 A3037 RMK A01 T10121032  RH  086%=      5-min Rain = 0
KTAS 100233Z 29003KT M01/M03 A3037 RMK A01 T10121032  RH  086%=      5-min Rain = 0
KTAS 100234Z 29003KT M01/M03 A3037 RMK A01 T10121032  RH  086%=      5-min Rain = 0
KTAS 100235Z 29003KT M01/M03 A3037 RMK A01 T10121032  RH  086%=      5-min Rain = 0
KTAS 100236Z 30003KT M01/M03 A3037 RMK A01 T10121032  RH  086%=      5-min Rain = 0
KTAS 100237Z 30003KT M01/M03 A3037 RMK A01 T10121031  RH  086%=      5-min Rain = 0
KTAS 100238Z 30003KT M01/M03 A3037 RMK A01 T10121031  RH  086%=      5-min Rain = 0
KTAS 100239Z 30003KT M01/M03 A3037 RMK A01 T10121031  RH  087%=      5-min Rain = 0
KTAS 100240Z 30004KT M01/M03 A3038 RMK A01 T10121031  RH  087%=      5-min Rain = 0
KTAS 100241Z 30003KT M01/M03 A3038 RMK A01 T10121031  RH  087%=      5-min Rain = 0
KTAS 100242Z 30003KT M01/M03 A3038 RMK A01 T10111031  RH  087%=      5-min Rain = 0
KTAS 100243Z 30003KT M01/M03 A3037 RMK A01 T10111031  RH  087%=      5-min Rain = 0
KTAS 100244Z 30003KT M01/M03 A3037 RMK A01 T10111031  RH  087%=      5-min Rain = 0
KTAS 100245Z 30003KT M01/M03 A3037 RMK A01 T10111030  RH  087%=      5-min Rain = 0
KTAS 100246Z 30004KT M01/M03 A3037 RMK A01 T10111030  RH  087%=      5-min Rain = 0
KTAS 100247Z 30004KT M01/M03 A3037 RMK A01 T10101030  RH  087%=      5-min Rain = 0
KTAS 100248Z 30004KT M01/M03 A3037 RMK A01 T10101029  RH  087%=      5-min Rain = 0
KTAS 100249Z 30004KT M01/M03 A3037 RMK A01 T10101029  RH  087%=      5-min Rain = 0
KTAS 100250Z 30004KT M01/M03 A3037 RMK A01 T10091029  RH  087%=      5-min Rain = 0
KTAS 100251Z 31004KT M01/M03 A3038 RMK A01 T10091029  RH  086%=      5-min Rain = 0
KTAS 100252Z 31004KT M01/M03 A3038 RMK A01 T10091029  RH  086%=      5-min Rain = 0
KTAS 100253Z 31004KT M01/M03 A3038 RMK A01 T10091029  RH  086%=      5-min Rain = 0
KTAS 100254Z 31004KT M01/M03 A3038 RMK A01 T10091029  RH  086%=      5-min Rain = 0
KTAS 100255Z 31004KT M01/M03 A3038 RMK A01 T10091030  RH  086%=      5-min Rain = 0
KTAS 100256Z 31003KT M01/M03 A3038 RMK A01 T10101030  RH  086%=      5-min Rain = 0
KTAS 100257Z 31003KT M01/M03 A3038 RMK A01 T10101031  RH  086%=      5-min Rain = 0
KTAS 100258Z 31003KT M01/M03 A3038 RMK A01 T10101031  RH  086%=      5-min Rain = 0
KTAS 100259Z 31003KT M01/M03 A3038 RMK A01 T10101031  RH  086%=      5-min Rain = 0
KTAS 100300Z 31003KT M01/M03 A3038 RMK A01 T10111031  RH  086%=      5-min Rain = 0
KTAS 100301Z 31003KT M01/M03 A3038 RMK A01 T10111031  RH  086%=      5-min Rain = 0
KTAS 100302Z 31003KT M01/M03 A3038 RMK A01 T10101031  RH  086%=      5-min Rain = 0
KTAS 100303Z 30003KT M01/M03 A3038 RMK A01 T10101031  RH  086%=      5-min Rain = 0
KTAS 100304Z 31004KT M01/M03 A3038 RMK A01 T10101031  RH  086%=      5-min Rain = 0
KTAS 100305Z 31004KT M01/M03 A3038 RMK A01 T10101031  RH  086%=      5-min Rain = 0
KTAS 100306Z 31004KT M01/M03 A3038 RMK A01 T10101031  RH  086%=      5-min Rain = 0
KTAS 100307Z 31004KT M01/M03 A3038 RMK A01 T10101031  RH  086%=      5-min Rain = 0
KTAS 100308Z 31004KT M01/M03 A3038 RMK A01 T10101031  RH  086%=      5-min Rain = 0
KTAS 100309Z 31004KT M01/M03 A3038 RMK A01 T10101031  RH  086%=      5-min Rain = 0
KTAS 100310Z 31004KT M01/M03 A3037 RMK A01 T10101031  RH  086%=      5-min Rain = 0
KTAS 100311Z 31004KT M01/M03 A3037 RMK A01 T10101032  RH  086%=      5-min Rain = 0
KTAS 100312Z 31004KT M01/M03 A3037 RMK A01 T10111032  RH  086%=      5-min Rain = 0
KTAS 100313Z 31003KT M01/M03 A3037 RMK A01 T10121033  RH  086%=      5-min Rain = 0
KTAS 100314Z 31003KT M01/M03 A3037 RMK A01 T10131034  RH  085%=      5-min Rain = 0
KTAS 100315Z 31003KT M01/M04 A3037 RMK A01 T10141035  RH  085%=      5-min Rain = 0
KTAS 100316Z 31003KT M01/M04 A3037 RMK A01 T10141036  RH  085%=      5-min Rain = 0
KTAS 100317Z 32003KT M02/M04 A3037 RMK A01 T10151036  RH  085%=      5-min Rain = 0
KTAS 100318Z 32003KT M02/M04 A3037 RMK A01 T10161037  RH  085%=      5-min Rain = 0
KTAS 100319Z 32003KT M02/M04 A3038 RMK A01 T10161038  RH  085%=      5-min Rain = 0
KTAS 100320Z 32003KT M02/M04 A3038 RMK A01 T10171038  RH  086%=      5-min Rain = 0
KTAS 100321Z 31003KT M02/M04 A3037 RMK A01 T10171038  RH  086%=      5-min Rain = 0
KTAS 100322Z 31003KT M02/M04 A3037 RMK A01 T10171037  RH  086%=      5-min Rain = 0
KTAS 100323Z 31003KT M02/M04 A3037 RMK A01 T10171037  RH  086%=      5-min Rain = 0
KTAS 100324Z 31003KT M02/M04 A3037 RMK A01 T10171037  RH  086%=      5-min Rain = 0
KTAS 100325Z 31003KT M02/M04 A3037 RMK A01 T10171037  RH  086%=      5-min Rain = 0
KTAS 100326Z 31003KT M02/M04 A3037 RMK A01 T10171037  RH  086%=      5-min Rain = 0
KTAS 100327Z 31003KT M02/M04 A3037 RMK A01 T10171038  RH  086%=      5-min Rain = 0
KTAS 100328Z 31003KT M02/M04 A3037 RMK A01 T10181038  RH  086%=      5-min Rain = 0
KTAS 100329Z 31003KT M02/M04 A3037 RMK A01 T10181039  RH  086%=      5-min Rain = 0
KTAS 100330Z 31004KT M02/M04 A3037 RMK A01 T10191039  RH  086%=      5-min Rain = 0
KTAS 100331Z 31003KT M02/M04 A3037 RMK A01 T10191039  RH  086%=      5-min Rain = 0
KTAS 100332Z 31004KT M02/M04 A3037 RMK A01 T10201039  RH  086%=      5-min Rain = 0
KTAS 100333Z 31004KT M02/M04 A3037 RMK A01 T10201039  RH  086%=      5-min Rain = 0
KTAS 100334Z 31004KT M02/M04 A3037 RMK A01 T10201040  RH  086%=      5-min Rain = 0
KTAS 100335Z 31004KT M02/M04 A3037 RMK A01 T10201040  RH  087%=      5-min Rain = 0
KTAS 100336Z 31004KT M02/M04 A3037 RMK A01 T10201039  RH  087%=      5-min Rain = 0
KTAS 100337Z 31004KT M02/M04 A3037 RMK A01 T10201039  RH  087%=      5-min Rain = 0
KTAS 100338Z 31004KT M02/M04 A3037 RMK A01 T10201039  RH  087%=      5-min Rain = 0
KTAS 100339Z 31004KT M02/M04 A3037 RMK A01 T10211040  RH  087%=      5-min Rain = 0
KTAS 100340Z 31004KT M02/M04 A3037 RMK A01 T10211040  RH  087%=      5-min Rain = 0
KTAS 100341Z 31004KT M02/M04 A3037 RMK A01 T10211040  RH  087%=      5-min Rain = 0
KTAS 100342Z 30004KT M02/M04 A3037 RMK A01 T10211039  RH  087%=      5-min Rain = 0
KTAS 100343Z 31004KT M02/M04 A3037 RMK A01 T10201039  RH  087%=      5-min Rain = 0
KTAS 100344Z 31005KT M02/M04 A3037 RMK A01 T10201039  RH  087%=      5-min Rain = 0
KTAS 100345Z 31005KT M02/M04 A3037 RMK A01 T10201038  RH  087%=      5-min Rain = 0
KTAS 100346Z 31005KT M02/M04 A3038 RMK A01 T10191038  RH  087%=      5-min Rain = 0
KTAS 100347Z 31006KT M02/M04 A3038 RMK A01 T10201038  RH  087%=      5-min Rain = 0
KTAS 100348Z 31005KT M02/M04 A3038 RMK A01 T10201039  RH  087%=      5-min Rain = 0
KTAS 100349Z 31006KT M02/M04 A3038 RMK A01 T10201039  RH  087%=      5-min Rain = 0
KTAS 100350Z 31006KT M02/M04 A3038 RMK A01 T10211040  RH  087%=      5-min Rain = 0
KTAS 100351Z 31006KT M02/M04 A3037 RMK A01 T10221041  RH  087%=      5-min Rain = 0
KTAS 100352Z 31006KT M02/M04 A3037 RMK A01 T10221041  RH  087%=      5-min Rain = 0
KTAS 100353Z 31006KT M02/M04 A3037 RMK A01 T10221041  RH  087%=      5-min Rain = 0
KTAS 100354Z 31006KT M02/M04 A3037 RMK A01 T10231041  RH  087%=      5-min Rain = 0
KTAS 100355Z 31006KT M02/M04 A3037 RMK A01 T10231041  RH  087%=      5-min Rain = 0
KTAS 100356Z 31006KT M02/M04 A3037 RMK A01 T10241043  RH  087%=      5-min Rain = 0
KTAS 100357Z 31006KT M03/M04 A3037 RMK A01 T10251044  RH  087%=      5-min Rain = 0
KTAS 100358Z 31006KT M03/M04 A3037 RMK A01 T10251044  RH  087%=      5-min Rain = 0
KTAS 100359Z 31006KT M02/M04 A3037 RMK A01 T10241043  RH  087%=      5-min Rain = 0
KTAS 100400Z 31006KT M02/M04 A3037 RMK A01 T10241042  RH  087%=      5-min Rain = 0
KTAS 100401Z 31005KT M02/M04 A3037 RMK A01 T10231041  RH  087%=      5-min Rain = 0
KTAS 100402Z 31005KT M02/M04 A3037 RMK A01 T10231041  RH  087%=      5-min Rain = 0
KTAS 100403Z 31005KT M02/M04 A3037 RMK A01 T10231041  RH  087%=      5-min Rain = 0
KTAS 100404Z 31005KT M02/M04 A3037 RMK A01 T10231041  RH  087%=      5-min Rain = 0
KTAS 100405Z 31005KT M02/M04 A3037 RMK A01 T10221040  RH  088%=      5-min Rain = 0
KTAS 100406Z 31005KT M02/M04 A3038 RMK A01 T10211039  RH  088%=      5-min Rain = 0
KTAS 100407Z 31005KT M02/M04 A3038 RMK A01 T10211039  RH  088%=      5-min Rain = 0
KTAS 100408Z 32005KT M02/M04 A3038 RMK A01 T10211039  RH  088%=      5-min Rain = 0
KTAS 100409Z 32005KT M02/M04 A3038 RMK A01 T10201038  RH  088%=      5-min Rain = 0
KTAS 100410Z 31005KT M02/M04 A3038 RMK A01 T10201037  RH  088%=      5-min Rain = 0
KTAS 100411Z 32004KT M02/M04 A3038 RMK A01 T10201037  RH  088%=      5-min Rain = 0
KTAS 100412Z 32004KT M02/M04 A3038 RMK A01 T10191037  RH  088%=      5-min Rain = 0
KTAS 100413Z 31004KT M02/M04 A3038 RMK A01 T10191037  RH  088%=      5-min Rain = 0
KTAS 100414Z 31004KT M02/M04 A3038 RMK A01 T10201038  RH  088%=      5-min Rain = 0
KTAS 100415Z 31004KT M02/M04 A3037 RMK A01 T10211039  RH  088%=      5-min Rain = 0
KTAS 100416Z 31004KT M02/M04 A3037 RMK A01 T10211039  RH  088%=      5-min Rain = 0
KTAS 100417Z 31004KT M02/M04 A3037 RMK A01 T10211039  RH  088%=      5-min Rain = 0
KTAS 100418Z 30004KT M02/M04 A3037 RMK A01 T10211039  RH  088%=      5-min Rain = 0
KTAS 100419Z 31004KT M02/M04 A3038 RMK A01 T10221040  RH  087%=      5-min Rain = 0
KTAS 100420Z 31004KT M02/M04 A3038 RMK A01 T10221040  RH  088%=      5-min Rain = 0
KTAS 100421Z 31004KT M02/M04 A3038 RMK A01 T10211039  RH  088%=      5-min Rain = 0
KTAS 100422Z 31004KT M02/M04 A3038 RMK A01 T10211039  RH  088%=      5-min Rain = 0
KTAS 100423Z 31004KT M02/M04 A3038 RMK A01 T10201038  RH  088%=      5-min Rain = 0
KTAS 100424Z 31004KT M02/M04 A3037 RMK A01 T10201038  RH  088%=      5-min Rain = 0
KTAS 100425Z 31004KT M02/M04 A3037 RMK A01 T10211038  RH  088%=      5-min Rain = 0
KTAS 100426Z 31004KT M02/M04 A3037 RMK A01 T10211039  RH  088%=      5-min Rain = 0
KTAS 100427Z 31004KT M02/M04 A3038 RMK A01 T10211039  RH  088%=      5-min Rain = 0
KTAS 100428Z 31005KT M02/M04 A3038 RMK A01 T10211039  RH  088%=      5-min Rain = 0
KTAS 100429Z 31005KT M02/M04 A3038 RMK A01 T10221040  RH  088%=      5-min Rain = 0
KTAS 100430Z 31005KT M02/M04 A3038 RMK A01 T10221040  RH  088%=      5-min Rain = 0
KTAS 100431Z 31006KT M02/M04 A3038 RMK A01 T10231041  RH  087%=      5-min Rain = 0
KTAS 100432Z 31006KT M02/M04 A3038 RMK A01 T10241042  RH  087%=      5-min Rain = 0
KTAS 100433Z 31006KT M02/M04 A3038 RMK A01 T10241042  RH  088%=      5-min Rain = 0
KTAS 100434Z 31006KT M02/M04 A3038 RMK A01 T10241042  RH  088%=      5-min Rain = 0
KTAS 100435Z 31007KT M03/M04 A3038 RMK A01 T10251043  RH  088%=      5-min Rain = 0
KTAS 100436Z 31007KT M03/M04 A3038 RMK A01 T10251043  RH  088%=      5-min Rain = 0
KTAS 100437Z 31007KT M03/M04 A3038 RMK A01 T10251043  RH  088%=      5-min Rain = 0
KTAS 100438Z 31007KT M03/M04 A3038 RMK A01 T10261043  RH  088%=      5-min Rain = 0
KTAS 100439Z 31007KT M03/M04 A3038 RMK A01 T10261044  RH  088%=      5-min Rain = 0
KTAS 100440Z 31007KT M03/M04 A3038 RMK A01 T10251043  RH  088%=      5-min Rain = 0
KTAS 100441Z 31007KT M03/M04 A3038 RMK A01 T10251042  RH  088%=      5-min Rain = 0
KTAS 100442Z 31006KT M02/M04 A3038 RMK A01 T10241042  RH  088%=      5-min Rain = 0
KTAS 100443Z 31006KT M02/M04 A3038 RMK A01 T10241041  RH  088%=      5-min Rain = 0
KTAS 100444Z 31006KT M02/M04 A3038 RMK A01 T10241041  RH  088%=      5-min Rain = 0
KTAS 100445Z 31006KT M02/M04 A3038 RMK A01 T10231041  RH  088%=      5-min Rain = 0
KTAS 100446Z 30006KT M02/M04 A3038 RMK A01 T10221039  RH  088%=      5-min Rain = 0
KTAS 100447Z 30006KT M02/M04 A3038 RMK A01 T10211038  RH  088%=      5-min Rain = 0
KTAS 100448Z 30006KT M02/M04 A3038 RMK A01 T10211039  RH  088%=      5-min Rain = 0
KTAS 100449Z 30006KT M02/M04 A3038 RMK A01 T10221039  RH  088%=      5-min Rain = 0
KTAS 100450Z 30006KT M02/M04 A3038 RMK A01 T10221039  RH  088%=      5-min Rain = 0
KTAS 100451Z 30006KT M02/M04 A3038 RMK A01 T10221040  RH  088%=      5-min Rain = 0
KTAS 100452Z 30006KT M02/M04 A3038 RMK A01 T10231040  RH  088%=      5-min Rain = 0
KTAS 100453Z 30005KT M02/M04 A3038 RMK A01 T10231041  RH  088%=      5-min Rain = 0
KTAS 100454Z 30005KT M02/M04 A3038 RMK A01 T10231041  RH  088%=      5-min Rain = 0
KTAS 100455Z 30005KT M02/M04 A3038 RMK A01 T10241041  RH  088%=      5-min Rain = 0
KTAS 100456Z 30005KT M02/M04 A3038 RMK A01 T10241042  RH  088%=      5-min Rain = 0
KTAS 100457Z 30005KT M03/M04 A3038 RMK A01 T10251042  RH  088%=      5-min Rain = 0
KTAS 100458Z 30005KT M03/M04 A3038 RMK A01 T10251042  RH  088%=      5-min Rain = 0
KTAS 100459Z 30006KT M03/M04 A3038 RMK A01 T10251043  RH  088%=      5-min Rain = 0
KTAS 100500Z 30006KT M03/M04 A3038 RMK A01 T10261043  RH  088%=      5-min Rain = 0
KTAS 100501Z 30005KT M03/M04 A3038 RMK A01 T10261043  RH  088%=      5-min Rain = 0
KTAS 100502Z 30006KT M03/M04 A3038 RMK A01 T10261043  RH  088%=      5-min Rain = 0
KTAS 100503Z 30006KT M03/M04 A3038 RMK A01 T10261043  RH  088%=      5-min Rain = 0
KTAS 100504Z 30006KT M03/M04 A3038 RMK A01 T10251042  RH  088%=      5-min Rain = 0
KTAS 100505Z 30006KT M02/M04 A3038 RMK A01 T10241041  RH  088%=      5-min Rain = 0
KTAS 100506Z 30006KT M02/M04 A3038 RMK A01 T10231040  RH  089%=      5-min Rain = 0
KTAS 100507Z 30006KT M02/M04 A3038 RMK A01 T10231039  RH  089%=      5-min Rain = 0
KTAS 100508Z 30006KT M02/M04 A3038 RMK A01 T10231039  RH  089%=      5-min Rain = 0
KTAS 100509Z 30006KT M02/M04 A3038 RMK A01 T10231040  RH  089%=      5-min Rain = 0
KTAS 100510Z 30006KT M02/M04 A3038 RMK A01 T10231040  RH  089%=      5-min Rain = 0
KTAS 100511Z 30007KT M02/M04 A3038 RMK A01 T10231040  RH  089%=      5-min Rain = 0
KTAS 100512Z 30006KT M02/M04 A3038 RMK A01 T10231040  RH  089%=      5-min Rain = 0
KTAS 100513Z 31006KT M02/M04 A3038 RMK A01 T10231039  RH  089%=      5-min Rain = 0
KTAS 100514Z 31005KT M02/M04 A3038 RMK A01 T10221038  RH  089%=      5-min Rain = 0
KTAS 100515Z 31005KT M02/M04 A3038 RMK A01 T10231039  RH  089%=      5-min Rain = 0
KTAS 100516Z 31005KT M02/M04 A3038 RMK A01 T10241040  RH  089%=      5-min Rain = 0
KTAS 100517Z 31006KT M02/M04 A3038 RMK A01 T10241040  RH  089%=      5-min Rain = 0
KTAS 100518Z 31006KT M02/M04 A3038 RMK A01 T10241040  RH  089%=      5-min Rain = 0
KTAS 100519Z 31006KT M02/M04 A3038 RMK A01 T10241040  RH  089%=      5-min Rain = 0
KTAS 100520Z 30006KT M02/M04 A3038 RMK A01 T10241040  RH  089%=      5-min Rain = 0
KTAS 100521Z 30006KT M02/M04 A3038 RMK A01 T10241040  RH  089%=      5-min Rain = 0
KTAS 100522Z 30006KT M02/M04 A3038 RMK A01 T10231039  RH  089%=      5-min Rain = 0
KTAS 100523Z 30006KT M02/M04 A3038 RMK A01 T10231038  RH  089%=      5-min Rain = 0
KTAS 100524Z 30006KT M02/M04 A3038 RMK A01 T10231038  RH  089%=      5-min Rain = 0
KTAS 100525Z 30005KT M02/M04 A3038 RMK A01 T10231038  RH  089%=      5-min Rain = 0
KTAS 100526Z 30005KT M02/M04 A3038 RMK A01 T10241039  RH  089%=      5-min Rain = 0
KTAS 100527Z 30006KT M03/M04 A3038 RMK A01 T10251041  RH  089%=      5-min Rain = 0
KTAS 100528Z 30007KT M03/M04 A3038 RMK A01 T10261041  RH  089%=      5-min Rain = 0
KTAS 100529Z 30007KT M02/M04 A3038 RMK A01 T10241040  RH  089%=      5-min Rain = 0
KTAS 100530Z 30007KT M02/M04 A3038 RMK A01 T10241039  RH  089%=      5-min Rain = 0
KTAS 100531Z 30007KT M02/M04 A3038 RMK A01 T10241039  RH  089%=      5-min Rain = 0
KTAS 100532Z 30007KT M02/M04 A3038 RMK A01 T10241039  RH  090%=      5-min Rain = 0
KTAS 100533Z 30007KT M02/M04 A3038 RMK A01 T10231038  RH  090%=      5-min Rain = 0
KTAS 100534Z 30007KT M02/M04 A3038 RMK A01 T10231037  RH  090%=      5-min Rain = 0
KTAS 100535Z 30007KT M02/M04 A3038 RMK A01 T10221037  RH  090%=      5-min Rain = 0
KTAS 100536Z 30007KT M02/M04 A3038 RMK A01 T10221037  RH  090%=      5-min Rain = 0
KTAS 100537Z 30007KT M02/M04 A3038 RMK A01 T10221037  RH  090%=      5-min Rain = 0
KTAS 100538Z 30007KT M02/M04 A3038 RMK A01 T10221037  RH  090%=      5-min Rain = 0
KTAS 100539Z 30007KT M02/M04 A3038 RMK A01 T10221036  RH  090%=      5-min Rain = 0
KTAS 100540Z 30007KT M02/M04 A3038 RMK A01 T10211036  RH  090%=      5-min Rain = 0
KTAS 100541Z 30007KT M02/M04 A3038 RMK A01 T10211036  RH  090%=      5-min Rain = 0
KTAS 100542Z 30007KT M02/M04 A3038 RMK A01 T10211035  RH  090%=      5-min Rain = 0
KTAS 100543Z 30007KT M02/M04 A3038 RMK A01 T10211035  RH  090%=      5-min Rain = 0
KTAS 100544Z 30007KT M02/M04 A3038 RMK A01 T10211035  RH  090%=      5-min Rain = 0
KTAS 100545Z 30007KT M02/M04 A3038 RMK A01 T10211036  RH  090%=      5-min Rain = 0
KTAS 100546Z 30007KT M02/M04 A3038 RMK A01 T10211035  RH  090%=      5-min Rain = 0
KTAS 100547Z 30006KT M02/M04 A3037 RMK A01 T10221036  RH  090%=      5-min Rain = 0
KTAS 100548Z 30006KT M02/M04 A3037 RMK A01 T10221036  RH  090%=      5-min Rain = 0
KTAS 100549Z 30006KT M02/M04 A3037 RMK A01 T10221036  RH  090%=      5-min Rain = 0
KTAS 100550Z 29007KT M02/M04 A3037 RMK A01 T10221036  RH  090%=      5-min Rain = 0
KTAS 100551Z 29007KT M02/M04 A3037 RMK A01 T10211035  RH  090%=      5-min Rain = 0
KTAS 100552Z 29007KT M02/M03 A3037 RMK A01 T10201034  RH  090%=      5-min Rain = 0
KTAS 100553Z 29006KT M02/M03 A3037 RMK A01 T10201033  RH  090%=      5-min Rain = 0
KTAS 100554Z 29006KT M02/M03 A3037 RMK A01 T10201034  RH  090%=      5-min Rain = 0
KTAS 100555Z 28005KT M02/M04 A3037 RMK A01 T10211035  RH  090%=      5-min Rain = 0
KTAS 100556Z 28005KT M02/M04 A3037 RMK A01 T10221037  RH  090%=      5-min Rain = 0
KTAS 100557Z 28006KT M02/M04 A3037 RMK A01 T10241038  RH  090%=      5-min Rain = 0
KTAS 100558Z 28006KT M02/M04 A3037 RMK A01 T10241039  RH  090%=      5-min Rain = 0
KTAS 100559Z 29006KT M02/M04 A3037 RMK A01 T10241038  RH  090%=      5-min Rain = 0

Page generated in 0.0897 seconds.